Wetterdaten: Mittwoch, 07.11.2018
Datum Zeit Temp. Aussen Temp. o. S. +5cm Feuchte Auss Luftdruck Regen Sonnenschein Regendauer Solar Windben Empfang
07.11.2018 00:00 11,2 C 10,0 C 10,0 C 90 % 1005,2 hPa 0,0 l/m 0 min 0 min 0 W/m 12,9 km/h (3 Bft) 97,83 %
07.11.2018 00:02 11,1 C 10,0 C 9,4 C 90 % 1005,3 hPa 0,0 l/m 0 min 0 min 0 W/m 9,7 km/h (2 Bft) 95,12 %
07.11.2018 00:04 11,1 C 10,0 C 9,4 C 90 % 1005,3 hPa 0,0 l/m 0 min 0 min 0 W/m 9,7 km/h (2 Bft) 95,74 %
07.11.2018 00:08 11,1 C 10,0 C 9,4 C 90 % 1005,3 hPa 0,0 l/m 0 min 0 min 0 W/m 9,7 km/h (2 Bft) 97,87 %
07.11.2018 00:10 11,1 C 10,0 C 9,4 C 90 % 1005,3 hPa 0,0 l/m 0 min 0 min 0 W/m 12,9 km/h (3 Bft) 95,74 %
07.11.2018 00:12 11,0 C 10,0 C 9,4 C 90 % 1005,2 hPa 0,0 l/m 0 min 0 min 0 W/m 9,7 km/h (2 Bft) 93,48 %
07.11.2018 00:14 11,0 C 10,0 C 9,4 C 90 % 1005,2 hPa 0,0 l/m 0 min 0 min 0 W/m 19,3 km/h (3 Bft) 97,87 %
07.11.2018 00:16 11,0 C 10,0 C 9,4 C 90 % 1005,2 hPa 0,0 l/m 0 min 0 min 0 W/m 9,7 km/h (2 Bft) 97,87 %
07.11.2018 00:18 10,9 C 10,0 C 9,4 C 90 % 1005,3 hPa 0,0 l/m 0 min 0 min 0 W/m 12,9 km/h (3 Bft) 97,87 %
07.11.2018 00:20 10,9 C 10,0 C 9,4 C 90 % 1005,4 hPa 0,0 l/m 0 min 0 min 0 W/m 12,9 km/h (3 Bft) 97,87 %
07.11.2018 00:22 10,9 C 10,0 C 9,4 C 90 % 1005,3 hPa 0,0 l/m 0 min 0 min 0 W/m 22,5 km/h (4 Bft) 95,74 %
07.11.2018 00:24 10,9 C 10,0 C 9,4 C 90 % 1005,3 hPa 0,0 l/m 0 min 0 min 0 W/m 9,7 km/h (2 Bft) 97,83 %
07.11.2018 00:26 10,9 C 10,0 C 9,4 C 90 % 1005,2 hPa 0,0 l/m 0 min 0 min 0 W/m 9,7 km/h (2 Bft) 97,87 %
07.11.2018 00:28 10,9 C 10,0 C 9,4 C 91 % 1005,2 hPa 0,0 l/m 0 min 0 min 0 W/m 6,4 km/h (2 Bft) 97,92 %
07.11.2018 00:30 10,8 C 10,0 C 9,4 C 91 % 1005,2 hPa 0,0 l/m 0 min 0 min 0 W/m 9,7 km/h (2 Bft) 100,00 %
07.11.2018 00:32 10,8 C 10,0 C 9,4 C 91 % 1005,2 hPa 0,0 l/m 0 min 0 min 0 W/m 9,7 km/h (2 Bft) 97,87 %
07.11.2018 00:34 10,8 C 10,0 C 9,4 C 91 % 1005,4 hPa 0,0 l/m 0 min 0 min 0 W/m 9,7 km/h (2 Bft) 100,00 %
07.11.2018 00:38 10,8 C 10,0 C 9,4 C 91 % 1005,3 hPa 0,0 l/m 0 min 0 min 0 W/m 9,7 km/h (2 Bft) 100,00 %
07.11.2018 00:40 10,8 C 10,0 C 9,4 C 91 % 1005,3 hPa 0,0 l/m 0 min 0 min 0 W/m 9,7 km/h (2 Bft) 100,00 %
07.11.2018 00:42 10,8 C 10,0 C 9,4 C 91 % 1005,3 hPa 0,0 l/m 0 min 0 min 0 W/m 9,7 km/h (2 Bft) 100,00 %
07.11.2018 00:44 10,7 C 10,0 C 9,4 C 91 % 1005,3 hPa 0,0 l/m 0 min 0 min 0 W/m 9,7 km/h (2 Bft) 100,00 %
07.11.2018 00:46 10,7 C 10,0 C 9,4 C 91 % 1005,4 hPa 0,0 l/m 0 min 0 min 0 W/m 12,9 km/h (3 Bft) 100,00 %
07.11.2018 00:48 10,7 C 10,0 C 9,4 C 91 % 1005,4 hPa 0,0 l/m 0 min 0 min 0 W/m 9,7 km/h (2 Bft) 100,00 %
07.11.2018 00:50 10,7 C 10,0 C 9,4 C 91 % 1005,4 hPa 0,0 l/m 0 min 0 min 0 W/m 9,7 km/h (2 Bft) 100,00 %
07.11.2018 00:52 10,7 C 10,0 C 9,4 C 91 % 1005,4 hPa 0,0 l/m 0 min 0 min 0 W/m 9,7 km/h (2 Bft) 100,00 %
07.11.2018 00:54 10,7 C 10,0 C 9,4 C 91 % 1005,4 hPa 0,0 l/m 0 min 0 min 0 W/m 6,4 km/h (2 Bft) 100,00 %
07.11.2018 00:56 10,7 C 10,0 C 9,4 C 91 % 1005,4 hPa 0,0 l/m 0 min 0 min 0 W/m 9,7 km/h (2 Bft) 100,00 %
07.11.2018 00:58 10,7 C 10,0 C 9,4 C 91 % 1005,5 hPa 0,0 l/m 0 min 0 min 0 W/m 9,7 km/h (2 Bft) 100,00 %
07.11.2018 01:00 10,7 C 10,0 C 9,4 C 91 % 1005,4 hPa 0,0 l/m 0 min 0 min 0 W/m 9,7 km/h (2 Bft) 100,00 %
07.11.2018 01:02 10,7 C 9,4 C 9,4 C 91 % 1005,3 hPa 0,0 l/m 0 min 0 min 0 W/m 6,4 km/h (2 Bft) 100,00 %
07.11.2018 01:04 10,6 C 10,0 C 9,4 C 91 % 1005,3 hPa 0,0 l/m 0 min 0 min 0 W/m 9,7 km/h (2 Bft) 100,00 %
07.11.2018 01:08 10,6 C 10,0 C 9,4 C 91 % 1005,3 hPa 0,0 l/m 0 min 0 min 0 W/m 6,4 km/h (2 Bft) 100,00 %
07.11.2018 01:10 10,6 C 10,0 C 9,4 C 91 % 1005,3 hPa 0,0 l/m 0 min 0 min 0 W/m 9,7 km/h (2 Bft) 100,00 %
07.11.2018 01:12 10,6 C 10,0 C 9,4 C 91 % 1005,4 hPa 0,0 l/m 0 min 0 min 0 W/m 9,7 km/h (2 Bft) 100,00 %
07.11.2018 01:14 10,6 C 10,0 C 9,4 C 91 % 1005,3 hPa 0,0 l/m 0 min 0 min 0 W/m 9,7 km/h (2 Bft) 100,00 %
07.11.2018 01:16 10,6 C 9,4 C 9,4 C 91 % 1005,4 hPa 0,0 l/m 0 min 0 min 0 W/m 9,7 km/h (2 Bft) 100,00 %
07.11.2018 01:18 10,6 C 9,4 C 9,4 C 91 % 1005,4 hPa 0,0 l/m 0 min 0 min 0 W/m 6,4 km/h (2 Bft) 100,00 %
07.11.2018 01:20 10,6 C 9,4 C 9,4 C 91 % 1005,3 hPa 0,0 l/m 0 min 0 min 0 W/m 9,7 km/h (2 Bft) 100,00 %
07.11.2018 01:22 10,5 C 9,4 C 9,4 C 91 % 1005,4 hPa 0,0 l/m 0 min 0 min 0 W/m 6,4 km/h (2 Bft) 100,00 %
07.11.2018 01:24 10,5 C 9,4 C 9,4 C 91 % 1005,5 hPa 0,0 l/m 0 min 0 min 0 W/m 9,7 km/h (2 Bft) 100,00 %
07.11.2018 01:26 10,5 C 9,4 C 9,4 C 91 % 1005,6 hPa 0,0 l/m 0 min 0 min 0 W/m 12,9 km/h (3 Bft) 97,92 %
07.11.2018 01:28 10,4 C 9,4 C 9,4 C 91 % 1005,5 hPa 0,0 l/m 0 min 0 min 0 W/m 6,4 km/h (2 Bft) 100,00 %
07.11.2018 01:30 10,4 C 10,0 C 9,4 C 91 % 1005,6 hPa 0,0 l/m 0 min 0 min 0 W/m 12,9 km/h (3 Bft) 100,00 %
07.11.2018 01:32 10,4 C 10,0 C 9,4 C 91 % 1005,6 hPa 0,0 l/m 0 min 0 min 0 W/m 9,7 km/h (2 Bft) 100,00 %
07.11.2018 01:34 10,4 C 10,0 C 9,4 C 91 % 1005,7 hPa 0,0 l/m 0 min 0 min 0 W/m 9,7 km/h (2 Bft) 100,00 %
07.11.2018 01:38 10,4 C 10,0 C 9,4 C 91 % 1005,6 hPa 0,0 l/m 0 min 0 min 0 W/m 9,7 km/h (2 Bft) 97,87 %
07.11.2018 01:40 10,4 C 10,0 C 9,4 C 91 % 1005,6 hPa 0,0 l/m 0 min 0 min 0 W/m 12,9 km/h (3 Bft) 100,00 %
07.11.2018 01:42 10,4 C 10,0 C 9,4 C 91 % 1005,6 hPa 0,0 l/m 0 min 0 min 0 W/m 9,7 km/h (2 Bft) 97,87 %
07.11.2018 01:44 10,4 C 10,0 C 9,4 C 91 % 1005,6 hPa 0,0 l/m 0 min 0 min 0 W/m 12,9 km/h (3 Bft) 97,87 %
07.11.2018 01:46 10,4 C 10,0 C 9,4 C 92 % 1005,7 hPa 0,0 l/m 0 min 0 min 0 W/m 9,7 km/h (2 Bft) 97,83 %
07.11.2018 01:48 10,4 C 10,0 C 9,4 C 92 % 1005,6 hPa 0,0 l/m 0 min 0 min 0 W/m 9,7 km/h (2 Bft) 97,62 %
07.11.2018 01:50 10,4 C 10,0 C 9,4 C 92 % 1005,8 hPa 0,0 l/m 0 min 0 min 0 W/m 6,4 km/h (2 Bft) 97,87 %
07.11.2018 01:52 10,4 C 10,0 C 9,4 C 92 % 1005,8 hPa 0,0 l/m 0 min 0 min 0 W/m 6,4 km/h (2 Bft) 95,92 %
07.11.2018 01:54 10,4 C 10,0 C 9,4 C 92 % 1005,8 hPa 0,0 l/m 0 min 0 min 0 W/m 9,7 km/h (2 Bft) 97,92 %
07.11.2018 01:56 10,4 C 10,0 C 9,4 C 92 % 1005,8 hPa 0,0 l/m 0 min 0 min 0 W/m 9,7 km/h (2 Bft) 97,92 %
07.11.2018 01:58 10,4 C 10,0 C 9,4 C 92 % 1005,8 hPa 0,0 l/m 0 min 0 min 0 W/m 6,4 km/h (2 Bft) 97,87 %
07.11.2018 02:00 10,4 C 10,0 C 9,4 C 92 % 1005,8 hPa 0,0 l/m 0 min 0 min 0 W/m 9,7 km/h (2 Bft) 97,87 %
07.11.2018 02:02 10,4 C 10,0 C 9,4 C 92 % 1005,9 hPa 0,0 l/m 0 min 0 min 0 W/m 9,7 km/h (2 Bft) 95,12 %
07.11.2018 02:04 10,4 C 10,0 C 9,4 C 92 % 1006,0 hPa 0,0 l/m 0 min 0 min 0 W/m 6,4 km/h (2 Bft) 96,00 %
07.11.2018 02:08 10,4 C 10,0 C 9,4 C 92 % 1005,9 hPa 0,0 l/m 0 min 0 min 0 W/m 6,4 km/h (2 Bft) 94,79 %
07.11.2018 02:10 10,4 C 10,0 C 9,4 C 92 % 1005,9 hPa 0,0 l/m 0 min 0 min 0 W/m 9,7 km/h (2 Bft) 93,62 %
07.11.2018 02:12 10,4 C 10,0 C 9,4 C 92 % 1005,9 hPa 0,0 l/m 0 min 0 min 0 W/m 6,4 km/h (2 Bft) 93,62 %
07.11.2018 02:14 10,5 C 10,0 C 9,4 C 92 % 1005,8 hPa 0,0 l/m 0 min 0 min 0 W/m 6,4 km/h (2 Bft) 95,74 %
07.11.2018 02:16 10,5 C 10,0 C 9,4 C 92 % 1005,8 hPa 0,0 l/m 0 min 0 min 0 W/m 9,7 km/h (2 Bft) 95,74 %
07.11.2018 02:18 10,5 C 10,0 C 9,4 C 92 % 1005,8 hPa 0,0 l/m 0 min 0 min 0 W/m 9,7 km/h (2 Bft) 92,86 %
07.11.2018 02:20 10,5 C 10,0 C 9,4 C 92 % 1005,9 hPa 0,0 l/m 0 min 0 min 0 W/m 6,4 km/h (2 Bft) 93,75 %
07.11.2018 02:22 10,5 C 10,0 C 9,4 C 92 % 1005,9 hPa 0,0 l/m 0 min 0 min 0 W/m 6,4 km/h (2 Bft) 93,75 %
07.11.2018 02:24 10,6 C 10,0 C 9,4 C 92 % 1005,9 hPa 0,0 l/m 0 min 0 min 0 W/m 9,7 km/h (2 Bft) 89,58 %
07.11.2018 02:26 10,5 C 10,0 C 9,4 C 92 % 1005,8 hPa 0,0 l/m 0 min 0 min 0 W/m 6,4 km/h (2 Bft) 93,62 %
07.11.2018 02:28 10,6 C 10,0 C 9,4 C 92 % 1005,9 hPa 0,0 l/m 0 min 0 min 0 W/m 9,7 km/h (2 Bft) 93,75 %
07.11.2018 02:30 10,6 C 10,0 C 9,4 C 92 % 1005,8 hPa 0,0 l/m 0 min 0 min 0 W/m 6,4 km/h (2 Bft) 93,62 %
07.11.2018 02:32 10,6 C 10,0 C 9,4 C 92 % 1005,7 hPa 0,0 l/m 0 min 0 min 0 W/m 6,4 km/h (2 Bft) 91,49 %
07.11.2018 02:34 10,6 C 10,0 C 9,4 C 92 % 1005,7 hPa 0,0 l/m 0 min 0 min 0 W/m 3,2 km/h (1 Bft) 95,65 %
07.11.2018 02:38 10,6 C 10,0 C 9,4 C 92 % 1005,8 hPa 0,0 l/m 0 min 0 min 0 W/m 6,4 km/h (2 Bft) 94,32 %
07.11.2018 02:40 10,6 C 9,4 C 9,4 C 92 % 1005,7 hPa 0,0 l/m 0 min 0 min 0 W/m 6,4 km/h (2 Bft) 95,83 %
07.11.2018 02:42 10,5 C 9,4 C 8,9 C 92 % 1005,7 hPa 0,0 l/m 0 min 0 min 0 W/m 6,4 km/h (2 Bft) 95,74 %
07.11.2018 02:44 10,5 C 9,4 C 8,9 C 92 % 1005,7 hPa 0,0 l/m 0 min 0 min 0 W/m 6,4 km/h (2 Bft) 95,83 %
07.11.2018 02:46 10,5 C 9,4 C 8,9 C 92 % 1005,7 hPa 0,0 l/m 0 min 0 min 0 W/m 6,4 km/h (2 Bft) 95,74 %
07.11.2018 02:48 10,5 C 9,4 C 8,9 C 91 % 1005,7 hPa 0,0 l/m 0 min 0 min 0 W/m 6,4 km/h (2 Bft) 95,83 %
07.11.2018 02:50 10,5 C 9,4 C 8,9 C 92 % 1005,7 hPa 0,0 l/m 0 min 0 min 0 W/m 6,4 km/h (2 Bft) 91,67 %
07.11.2018 02:52 10,5 C 9,4 C 8,9 C 91 % 1005,8 hPa 0,0 l/m 0 min 0 min 0 W/m 3,2 km/h (1 Bft) 95,83 %
07.11.2018 02:54 10,5 C 9,4 C 8,9 C 91 % 1005,8 hPa 0,0 l/m 0 min 0 min 0 W/m 6,4 km/h (2 Bft) 95,74 %
07.11.2018 02:56 10,4 C 9,4 C 8,9 C 91 % 1005,8 hPa 0,0 l/m 0 min 0 min 0 W/m 6,4 km/h (2 Bft) 95,65 %
07.11.2018 02:58 10,4 C 9,4 C 8,9 C 91 % 1005,8 hPa 0,0 l/m 0 min 0 min 0 W/m 3,2 km/h (1 Bft) 95,12 %
07.11.2018 03:00 10,4 C 9,4 C 8,9 C 91 % 1005,8 hPa 0,0 l/m 0 min 0 min 0 W/m 3,2 km/h (1 Bft) 95,74 %
07.11.2018 03:02 10,4 C 9,4 C 8,9 C 91 % 1005,9 hPa 0,0 l/m 0 min 0 min 0 W/m 3,2 km/h (1 Bft) 92,00 %
07.11.2018 03:04 10,4 C 9,4 C 8,9 C 91 % 1005,7 hPa 0,0 l/m 0 min 0 min 0 W/m 6,4 km/h (2 Bft) 95,74 %
07.11.2018 03:08 10,3 C 8,9 C 8,9 C 91 % 1005,7 hPa 0,0 l/m 0 min 0 min 0 W/m 9,7 km/h (2 Bft) 95,70 %
07.11.2018 03:10 10,3 C 8,9 C 8,9 C 91 % 1005,7 hPa 0,0 l/m 0 min 0 min 0 W/m 6,4 km/h (2 Bft) 97,87 %
07.11.2018 03:12 10,3 C 9,4 C 8,9 C 91 % 1005,7 hPa 0,0 l/m 0 min 0 min 0 W/m 6,4 km/h (2 Bft) 95,92 %
07.11.2018 03:14 10,3 C 8,9 C 8,9 C 91 % 1005,7 hPa 0,0 l/m 0 min 0 min 0 W/m 6,4 km/h (2 Bft) 97,87 %
07.11.2018 03:16 10,3 C 8,9 C 8,9 C 91 % 1005,6 hPa 0,0 l/m 0 min 0 min 0 W/m 6,4 km/h (2 Bft) 100,00 %
07.11.2018 03:18 10,2 C 8,9 C 8,3 C 91 % 1005,6 hPa 0,0 l/m 0 min 0 min 0 W/m 3,2 km/h (1 Bft) 100,00 %
07.11.2018 03:20 10,2 C 8,9 C 8,3 C 91 % 1005,6 hPa 0,0 l/m 0 min 0 min 0 W/m 3,2 km/h (1 Bft) 100,00 %
07.11.2018 03:22 10,2 C 8,9 C 8,3 C 91 % 1005,6 hPa 0,0 l/m 0 min 0 min 0 W/m 9,7 km/h (2 Bft) 97,14 %
07.11.2018 03:24 10,2 C 8,9 C 8,3 C 91 % 1005,6 hPa 0,0 l/m 0 min 0 min 0 W/m 6,4 km/h (2 Bft) 97,92 %
07.11.2018 03:26 10,1 C 8,9 C 8,3 C 91 % 1005,7 hPa 0,0 l/m 0 min 0 min 0 W/m 3,2 km/h (1 Bft) 100,00 %
07.11.2018 03:28 10,1 C 8,9 C 8,3 C 91 % 1005,6 hPa 0,0 l/m 0 min 0 min 0 W/m 6,4 km/h (2 Bft) 97,87 %
07.11.2018 03:30 10,1 C 8,9 C 8,3 C 91 % 1005,7 hPa 0,0 l/m 0 min 0 min 0 W/m 6,4 km/h (2 Bft) 100,00 %
07.11.2018 03:32 10,1 C 8,3 C 8,3 C 91 % 1005,7 hPa 0,0 l/m 0 min 0 min 0 W/m 6,4 km/h (2 Bft) 100,00 %
07.11.2018 03:34 10,0 C 8,3 C 8,3 C 91 % 1005,8 hPa 0,0 l/m 0 min 0 min 0 W/m 6,4 km/h (2 Bft) 100,00 %
07.11.2018 03:38 9,9 C 8,3 C 8,3 C 91 % 1005,7 hPa 0,0 l/m 0 min 0 min 0 W/m 6,4 km/h (2 Bft) 100,00 %
07.11.2018 03:40 9,9 C 8,3 C 8,3 C 91 % 1005,7 hPa 0,0 l/m 0 min 0 min 0 W/m 6,4 km/h (2 Bft) 100,00 %
07.11.2018 03:42 9,9 C 8,3 C 8,3 C 91 % 1005,7 hPa 0,0 l/m 0 min 0 min 0 W/m 6,4 km/h (2 Bft) 97,92 %
07.11.2018 03:44 9,8 C 8,3 C 8,3 C 91 % 1005,7 hPa 0,0 l/m 0 min 0 min 0 W/m 9,7 km/h (2 Bft) 100,00 %
07.11.2018 03:46 9,8 C 8,3 C 8,3 C 91 % 1005,5 hPa 0,0 l/m 0 min 0 min 0 W/m 9,7 km/h (2 Bft) 100,00 %
07.11.2018 03:48 9,8 C 8,9 C 8,3 C 91 % 1005,5 hPa 0,0 l/m 0 min 0 min 0 W/m 12,9 km/h (3 Bft) 100,00 %
07.11.2018 03:50 9,7 C 8,9 C 8,3 C 91 % 1005,5 hPa 0,0 l/m 0 min 0 min 0 W/m 9,7 km/h (2 Bft) 100,00 %
07.11.2018 03:52 9,7 C 8,9 C 8,3 C 92 % 1005,5 hPa 0,0 l/m 0 min 0 min 0 W/m 9,7 km/h (2 Bft) 100,00 %
07.11.2018 03:54 9,7 C 8,9 C 8,3 C 91 % 1005,6 hPa 0,0 l/m 0 min 0 min 0 W/m 12,9 km/h (3 Bft) 100,00 %
07.11.2018 03:56 9,7 C 8,9 C 8,3 C 92 % 1005,5 hPa 0,0 l/m 0 min 0 min 0 W/m 12,9 km/h (3 Bft) 100,00 %
07.11.2018 03:58 9,7 C 8,9 C 8,3 C 92 % 1005,4 hPa 0,0 l/m 0 min 0 min 0 W/m 9,7 km/h (2 Bft) 95,74 %
07.11.2018 04:00 9,6 C 8,9 C 8,3 C 92 % 1005,4 hPa 0,0 l/m 0 min 0 min 0 W/m 12,9 km/h (3 Bft) 100,00 %
07.11.2018 04:05 9,6 C 8,9 C 8,3 C 92 % 1005,3 hPa 0,0 l/m 0 min 0 min 0 W/m 6,4 km/h (2 Bft) 97,14 %
07.11.2018 04:06 9,6 C 8,9 C 8,3 C 92 % 1005,3 hPa 0,0 l/m 0 min 0 min 0 W/m 12,9 km/h (3 Bft) 100,00 %
07.11.2018 04:08 9,6 C 8,9 C 8,3 C 92 % 1005,3 hPa 0,0 l/m 0 min 0 min 0 W/m 12,9 km/h (3 Bft) 100,00 %
07.11.2018 04:10 9,6 C 8,9 C 8,3 C 92 % 1005,4 hPa 0,0 l/m 0 min 0 min 0 W/m 9,7 km/h (2 Bft) 100,00 %
07.11.2018 04:12 9,5 C 8,9 C 8,3 C 92 % 1005,5 hPa 0,0 l/m 0 min 0 min 0 W/m 16,1 km/h (3 Bft) 97,87 %
07.11.2018 04:14 9,6 C 8,9 C 8,3 C 92 % 1005,4 hPa 0,0 l/m 0 min 0 min 0 W/m 16,1 km/h (3 Bft) 97,87 %
07.11.2018 04:16 9,5 C 8,9 C 8,3 C 92 % 1005,3 hPa 0,0 l/m 0 min 0 min 0 W/m 16,1 km/h (3 Bft) 97,92 %
07.11.2018 04:18 9,6 C 8,9 C 8,3 C 92 % 1005,2 hPa 0,0 l/m 0 min 0 min 0 W/m 9,7 km/h (2 Bft) 100,00 %
07.11.2018 04:20 9,6 C 9,4 C 8,3 C 92 % 1005,2 hPa 0,0 l/m 0 min 0 min 0 W/m 16,1 km/h (3 Bft) 97,87 %
07.11.2018 04:22 9,6 C 9,4 C 8,3 C 92 % 1005,2 hPa 0,0 l/m 0 min 0 min 0 W/m 9,7 km/h (2 Bft) 100,00 %
07.11.2018 04:24 9,6 C 9,4 C 8,3 C 92 % 1005,2 hPa 0,0 l/m 0 min 0 min 0 W/m 9,7 km/h (2 Bft) 95,74 %
07.11.2018 04:26 9,6 C 9,4 C 8,9 C 93 % 1005,1 hPa 0,0 l/m 0 min 0 min 0 W/m 9,7 km/h (2 Bft) 97,87 %
07.11.2018 04:28 9,6 C 9,4 C 8,9 C 93 % 1005,1 hPa 0,0 l/m 0 min 0 min 0 W/m 16,1 km/h (3 Bft) 100,00 %
07.11.2018 04:30 9,6 C 9,4 C 8,9 C 93 % 1005,1 hPa 0,0 l/m 0 min 0 min 0 W/m 16,1 km/h (3 Bft) 100,00 %
07.11.2018 04:32 9,6 C 9,4 C 8,9 C 93 % 1005,1 hPa 0,0 l/m 0 min 0 min 0 W/m 16,1 km/h (3 Bft) 100,00 %
07.11.2018 04:34 9,7 C 9,4 C 8,9 C 93 % 1005,0 hPa 0,0 l/m 0 min 0 min 0 W/m 16,1 km/h (3 Bft) 100,00 %
07.11.2018 04:38 9,7 C 9,4 C 8,9 C 93 % 1005,0 hPa 0,0 l/m 0 min 0 min 0 W/m 16,1 km/h (3 Bft) 97,92 %
07.11.2018 04:40 9,7 C 9,4 C 8,9 C 92 % 1005,0 hPa 0,0 l/m 0 min 0 min 0 W/m 19,3 km/h (3 Bft) 97,87 %
07.11.2018 04:42 9,8 C 9,4 C 8,9 C 92 % 1005,1 hPa 0,0 l/m 0 min 0 min 0 W/m 16,1 km/h (3 Bft) 93,62 %
07.11.2018 04:44 9,8 C 9,4 C 8,9 C 92 % 1005,1 hPa 0,0 l/m 0 min 0 min 0 W/m 16,1 km/h (3 Bft) 97,87 %
07.11.2018 04:46 9,8 C 9,4 C 8,9 C 92 % 1005,0 hPa 0,0 l/m 0 min 0 min 0 W/m 19,3 km/h (3 Bft) 95,74 %
07.11.2018 04:48 9,8 C 9,4 C 8,9 C 92 % 1004,9 hPa 0,0 l/m 0 min 0 min 0 W/m 9,7 km/h (2 Bft) 95,74 %
07.11.2018 04:50 9,8 C 9,4 C 8,9 C 92 % 1005,1 hPa 0,0 l/m 0 min 0 min 0 W/m 16,1 km/h (3 Bft) 97,87 %
07.11.2018 04:52 9,9 C 9,4 C 8,9 C 92 % 1005,0 hPa 0,0 l/m 0 min 0 min 0 W/m 9,7 km/h (2 Bft) 97,62 %
07.11.2018 04:54 9,9 C 9,4 C 8,9 C 92 % 1005,0 hPa 0,0 l/m 0 min 0 min 0 W/m 19,3 km/h (3 Bft) 95,74 %
07.11.2018 04:56 9,9 C 9,4 C 8,9 C 92 % 1005,0 hPa 0,0 l/m 0 min 0 min 0 W/m 12,9 km/h (3 Bft) 95,74 %
07.11.2018 04:58 9,9 C 9,4 C 8,9 C 92 % 1004,9 hPa 0,0 l/m 0 min 0 min 0 W/m 12,9 km/h (3 Bft) 96,00 %
07.11.2018 05:00 9,9 C 9,4 C 8,9 C 91 % 1005,0 hPa 0,0 l/m 0 min 0 min 0 W/m 9,7 km/h (2 Bft) 95,83 %
07.11.2018 05:02 9,9 C 9,4 C 8,9 C 91 % 1005,1 hPa 0,0 l/m 0 min 0 min 0 W/m 16,1 km/h (3 Bft) 95,12 %
07.11.2018 05:04 9,9 C 9,4 C 8,9 C 91 % 1005,1 hPa 0,0 l/m 0 min 0 min 0 W/m 12,9 km/h (3 Bft) 94,00 %
07.11.2018 05:05 9,9 C 9,4 C 8,9 C 91 % 1005,2 hPa 0,0 l/m 0 min 0 min 0 W/m 16,1 km/h (3 Bft) 96,49 %
07.11.2018 05:10 9,9 C 9,4 C 8,9 C 91 % 1004,9 hPa 0,0 l/m 0 min 0 min 0 W/m 19,3 km/h (3 Bft) 94,74 %
07.11.2018 05:12 9,9 C 9,4 C 8,9 C 91 % 1005,0 hPa 0,0 l/m 0 min 0 min 0 W/m 12,9 km/h (3 Bft) 91,67 %
07.11.2018 05:14 9,9 C 9,4 C 8,9 C 91 % 1005,1 hPa 0,0 l/m 0 min 0 min 0 W/m 9,7 km/h (2 Bft) 93,48 %
07.11.2018 05:20 10,0 C 9,4 C 8,9 C 91 % 1005,1 hPa 0,0 l/m 0 min 0 min 0 W/m 25,7 km/h (4 Bft) 100,00 %
07.11.2018 05:22 10,0 C 9,4 C 8,9 C 91 % 1005,0 hPa 0,0 l/m 0 min 0 min 0 W/m 9,7 km/h (2 Bft) 94,59 %
07.11.2018 05:24 10,0 C 9,4 C 8,9 C 91 % 1005,1 hPa 0,0 l/m 0 min 0 min 0 W/m 16,1 km/h (3 Bft) 97,92 %
07.11.2018 05:26 10,0 C 9,4 C 8,9 C 91 % 1004,9 hPa 0,0 l/m 0 min 0 min 0 W/m 9,7 km/h (2 Bft) 93,62 %
07.11.2018 05:28 10,0 C 9,4 C 8,9 C 91 % 1005,0 hPa 0,0 l/m 0 min 0 min 0 W/m 12,9 km/h (3 Bft) 97,83 %
07.11.2018 05:30 10,0 C 9,4 C 8,9 C 91 % 1005,1 hPa 0,0 l/m 0 min 0 min 0 W/m 16,1 km/h (3 Bft) 95,74 %
07.11.2018 05:32 10,0 C 9,4 C 8,9 C 91 % 1005,1 hPa 0,0 l/m 0 min 0 min 0 W/m 22,5 km/h (4 Bft) 97,56 %
07.11.2018 05:34 10,0 C 9,4 C 8,9 C 90 % 1005,2 hPa 0,0 l/m 0 min 0 min 0 W/m 22,5 km/h (4 Bft) 97,92 %
07.11.2018 05:38 10,0 C 9,4 C 8,9 C 90 % 1005,2 hPa 0,0 l/m 0 min 0 min 0 W/m 19,3 km/h (3 Bft) 97,92 %
07.11.2018 05:40 10,0 C 9,4 C 8,9 C 90 % 1005,0 hPa 0,0 l/m 0 min 0 min 0 W/m 22,5 km/h (4 Bft) 97,92 %
07.11.2018 05:42 10,0 C 9,4 C 8,9 C 90 % 1005,0 hPa 0,0 l/m 0 min 0 min 0 W/m 16,1 km/h (3 Bft) 95,83 %
07.11.2018 05:44 10,0 C 9,4 C 8,9 C 90 % 1004,9 hPa 0,0 l/m 0 min 0 min 0 W/m 22,5 km/h (4 Bft) 97,87 %
07.11.2018 05:46 10,0 C 9,4 C 8,9 C 90 % 1005,1 hPa 0,0 l/m 0 min 0 min 0 W/m 25,7 km/h (4 Bft) 97,87 %
07.11.2018 05:48 10,0 C 9,4 C 8,9 C 90 % 1005,1 hPa 0,0 l/m 0 min 0 min 0 W/m 19,3 km/h (3 Bft) 95,74 %
07.11.2018 05:50 10,0 C 9,4 C 8,9 C 90 % 1005,2 hPa 0,0 l/m 0 min 0 min 0 W/m 22,5 km/h (4 Bft) 98,28 %
07.11.2018 05:52 10,0 C 9,4 C 8,9 C 90 % 1005,1 hPa 0,0 l/m 0 min 0 min 0 W/m 16,1 km/h (3 Bft) 97,22 %
07.11.2018 05:54 10,0 C 9,4 C 8,9 C 90 % 1005,1 hPa 0,0 l/m 0 min 0 min 0 W/m 16,1 km/h (3 Bft) 100,00 %
07.11.2018 05:56 10,0 C 9,4 C 8,9 C 90 % 1005,2 hPa 0,0 l/m 0 min 0 min 0 W/m 12,9 km/h (3 Bft) 93,62 %
07.11.2018 05:58 9,9 C 9,4 C 8,9 C 90 % 1005,3 hPa 0,0 l/m 0 min 0 min 0 W/m 16,1 km/h (3 Bft) 94,00 %
07.11.2018 06:00 9,9 C 9,4 C 8,3 C 90 % 1005,2 hPa 0,0 l/m 0 min 0 min 0 W/m 12,9 km/h (3 Bft) 97,96 %
07.11.2018 06:02 9,9 C 9,4 C 8,3 C 90 % 1005,3 hPa 0,0 l/m 0 min 0 min 0 W/m 12,9 km/h (3 Bft) 97,83 %
07.11.2018 06:04 9,9 C 8,9 C 8,3 C 90 % 1005,2 hPa 0,0 l/m 0 min 0 min 0 W/m 19,3 km/h (3 Bft) 97,73 %
07.11.2018 06:08 9,9 C 8,9 C 8,3 C 90 % 1005,3 hPa 0,0 l/m 0 min 0 min 0 W/m 22,5 km/h (4 Bft) 97,89 %
07.11.2018 06:10 9,9 C 8,9 C 8,3 C 90 % 1005,3 hPa 0,0 l/m 0 min 0 min 0 W/m 16,1 km/h (3 Bft) 97,96 %
07.11.2018 06:12 9,9 C 8,9 C 8,3 C 90 % 1005,4 hPa 0,0 l/m 0 min 0 min 0 W/m 12,9 km/h (3 Bft) 97,87 %
07.11.2018 06:14 9,9 C 8,9 C 8,3 C 90 % 1005,5 hPa 0,0 l/m 0 min 0 min 0 W/m 9,7 km/h (2 Bft) 97,83 %
07.11.2018 06:16 9,8 C 8,9 C 8,3 C 90 % 1005,5 hPa 0,0 l/m 0 min 0 min 0 W/m 6,4 km/h (2 Bft) 97,87 %
07.11.2018 06:18 9,8 C 8,9 C 8,3 C 90 % 1005,4 hPa 0,0 l/m 0 min 0 min 0 W/m 16,1 km/h (3 Bft) 97,62 %
07.11.2018 06:20 9,8 C 8,9 C 8,3 C 90 % 1005,2 hPa 0,0 l/m 0 min 0 min 0 W/m 22,5 km/h (4 Bft) 98,31 %
07.11.2018 06:22 9,8 C 8,9 C 8,3 C 90 % 1005,3 hPa 0,0 l/m 0 min 0 min 0 W/m 16,1 km/h (3 Bft) 94,59 %
07.11.2018 06:24 9,8 C 8,9 C 8,3 C 90 % 1005,2 hPa 0,0 l/m 0 min 0 min 0 W/m 19,3 km/h (3 Bft) 97,92 %
07.11.2018 06:26 9,8 C 8,9 C 8,3 C 90 % 1005,2 hPa 0,0 l/m 0 min 0 min 0 W/m 9,7 km/h (2 Bft) 97,92 %
07.11.2018 06:28 9,7 C 8,9 C 8,3 C 90 % 1005,2 hPa 0,0 l/m 0 min 0 min 0 W/m 9,7 km/h (2 Bft) 95,83 %
07.11.2018 06:30 9,7 C 8,9 C 8,3 C 89 % 1005,2 hPa 0,0 l/m 0 min 0 min 0 W/m 16,1 km/h (3 Bft) 97,87 %
07.11.2018 06:32 9,7 C 8,9 C 8,3 C 90 % 1005,2 hPa 0,0 l/m 0 min 0 min 0 W/m 22,5 km/h (4 Bft) 97,87 %
07.11.2018 06:34 9,7 C 8,9 C 8,3 C 90 % 1005,2 hPa 0,0 l/m 0 min 0 min 0 W/m 22,5 km/h (4 Bft) 97,87 %
07.11.2018 06:38 9,6 C 8,9 C 8,3 C 90 % 1005,1 hPa 0,0 l/m 0 min 0 min 0 W/m 16,1 km/h (3 Bft) 97,73 %
07.11.2018 06:40 9,6 C 8,9 C 8,3 C 90 % 1005,0 hPa 0,0 l/m 0 min 0 min 0 W/m 12,9 km/h (3 Bft) 97,92 %
07.11.2018 06:42 9,6 C 8,3 C 8,3 C 90 % 1005,0 hPa 0,0 l/m 0 min 0 min 0 W/m 16,1 km/h (3 Bft) 97,92 %
07.11.2018 06:44 9,6 C 8,3 C 8,3 C 90 % 1004,9 hPa 0,0 l/m 0 min 0 min 0 W/m 16,1 km/h (3 Bft) 95,83 %
07.11.2018 06:46 9,5 C 8,3 C 8,3 C 90 % 1004,9 hPa 0,0 l/m 0 min 0 min 0 W/m 22,5 km/h (4 Bft) 97,92 %
07.11.2018 06:48 9,5 C 8,3 C 8,3 C 90 % 1005,0 hPa 0,0 l/m 0 min 0 min 0 W/m 12,9 km/h (3 Bft) 97,87 %
07.11.2018 06:50 9,5 C 8,9 C 8,3 C 90 % 1005,2 hPa 0,0 l/m 0 min 0 min 0 W/m 19,3 km/h (3 Bft) 96,55 %
07.11.2018 06:52 9,5 C 8,9 C 8,3 C 90 % 1005,1 hPa 0,0 l/m 0 min 0 min 0 W/m 12,9 km/h (3 Bft) 97,14 %
07.11.2018 06:54 9,4 C 8,3 C 7,8 C 90 % 1005,2 hPa 0,0 l/m 0 min 0 min 0 W/m 12,9 km/h (3 Bft) 97,87 %
07.11.2018 06:56 9,4 C 8,3 C 7,8 C 90 % 1005,2 hPa 0,0 l/m 0 min 0 min 0 W/m 12,9 km/h (3 Bft) 100,00 %
07.11.2018 06:58 9,4 C 8,9 C 7,8 C 90 % 1005,1 hPa 0,0 l/m 0 min 0 min 0 W/m 16,1 km/h (3 Bft) 97,87 %
07.11.2018 07:00 9,4 C 8,9 C 7,8 C 90 % 1005,1 hPa 0,0 l/m 0 min 0 min 0 W/m 16,1 km/h (3 Bft) 100,00 %
07.11.2018 07:02 9,4 C 8,9 C 8,3 C 90 % 1005,1 hPa 0,0 l/m 0 min 0 min 0 W/m 16,1 km/h (3 Bft) 100,00 %
07.11.2018 07:04 9,4 C 8,9 C 8,3 C 90 % 1005,1 hPa 0,0 l/m 0 min 0 min 0 W/m 19,3 km/h (3 Bft) 100,00 %
07.11.2018 07:08 9,4 C 8,9 C 8,3 C 90 % 1005,1 hPa 0,0 l/m 0 min 0 min 0 W/m 16,1 km/h (3 Bft) 97,89 %
07.11.2018 07:10 9,4 C 8,9 C 7,8 C 90 % 1005,0 hPa 0,0 l/m 0 min 0 min 0 W/m 16,1 km/h (3 Bft) 100,00 %
07.11.2018 07:12 9,4 C 8,9 C 8,3 C 90 % 1004,9 hPa 0,0 l/m 0 min 0 min 0 W/m 22,5 km/h (4 Bft) 97,83 %
07.11.2018 07:14 9,4 C 8,9 C 8,3 C 90 % 1004,8 hPa 0,0 l/m 0 min 0 min 0 W/m 16,1 km/h (3 Bft) 100,00 %
07.11.2018 07:16 9,4 C 8,9 C 7,8 C 90 % 1004,9 hPa 0,0 l/m 0 min 0 min 0 W/m 9,7 km/h (2 Bft) 100,00 %
07.11.2018 07:18 9,4 C 8,9 C 7,8 C 90 % 1005,0 hPa 0,0 l/m 0 min 0 min 0 W/m 12,9 km/h (3 Bft) 95,74 %
07.11.2018 07:20 9,3 C 8,9 C 7,8 C 90 % 1005,1 hPa 0,0 l/m 0 min 0 min 0 W/m 9,7 km/h (2 Bft) 100,00 %
07.11.2018 07:22 9,4 C 8,9 C 7,8 C 90 % 1005,0 hPa 0,0 l/m 0 min 0 min 0 W/m 9,7 km/h (2 Bft) 100,00 %
07.11.2018 07:24 9,3 C 8,9 C 7,8 C 90 % 1005,1 hPa 0,0 l/m 0 min 0 min 0 W/m 16,1 km/h (3 Bft) 93,48 %
07.11.2018 07:26 9,3 C 8,3 C 7,8 C 90 % 1005,2 hPa 0,0 l/m 0 min 0 min 0 W/m 9,7 km/h (2 Bft) 100,00 %
07.11.2018 07:28 9,3 C 8,3 C 7,8 C 90 % 1005,1 hPa 0,0 l/m 0 min 0 min 0 W/m 16,1 km/h (3 Bft) 95,74 %
07.11.2018 07:30 9,3 C 8,3 C 7,8 C 90 % 1005,2 hPa 0,0 l/m 0 min 0 min 0 W/m 12,9 km/h (3 Bft) 97,87 %
07.11.2018 07:32 9,3 C 8,3 C 7,8 C 90 % 1005,2 hPa 0,0 l/m 0 min 0 min 0 W/m 25,7 km/h (4 Bft) 95,74 %
07.11.2018 07:34 9,3 C 8,3 C 7,8 C 90 % 1005,2 hPa 0,0 l/m 0 min 0 min 0 W/m 22,5 km/h (4 Bft) 97,87 %
07.11.2018 07:38 9,3 C 8,9 C 7,8 C 90 % 1005,4 hPa 0,0 l/m 0 min 0 min 0 W/m 22,5 km/h (4 Bft) 94,68 %
07.11.2018 07:40 9,3 C 8,9 C 7,8 C 90 % 1005,4 hPa 0,0 l/m 0 min 0 min 0 W/m 16,1 km/h (3 Bft) 97,87 %
07.11.2018 07:42 9,3 C 8,3 C 7,8 C 90 % 1005,4 hPa 0,0 l/m 0 min 0 min 4 W/m 12,9 km/h (3 Bft) 95,74 %
07.11.2018 07:44 9,3 C 8,3 C 7,8 C 90 % 1005,4 hPa 0,0 l/m 0 min 0 min 5 W/m 22,5 km/h (4 Bft) 97,87 %
07.11.2018 07:46 9,3 C 8,3 C 7,8 C 90 % 1005,4 hPa 0,0 l/m 0 min 0 min 5 W/m 16,1 km/h (3 Bft) 95,74 %
07.11.2018 07:48 9,3 C 8,3 C 7,8 C 90 % 1005,5 hPa 0,0 l/m 0 min 0 min 6 W/m 12,9 km/h (3 Bft) 95,65 %
07.11.2018 07:50 9,3 C 8,3 C 7,8 C 90 % 1005,5 hPa 0,0 l/m 0 min 0 min 7 W/m 16,1 km/h (3 Bft) 97,87 %
07.11.2018 07:52 9,3 C 8,9 C 7,8 C 90 % 1005,5 hPa 0,0 l/m 0 min 0 min 7 W/m 16,1 km/h (3 Bft) 93,75 %
07.11.2018 07:54 9,3 C 8,3 C 7,8 C 91 % 1005,5 hPa 0,0 l/m 0 min 0 min 8 W/m 16,1 km/h (3 Bft) 95,74 %
07.11.2018 07:56 9,2 C 8,3 C 7,8 C 91 % 1005,6 hPa 0,0 l/m 0 min 0 min 9 W/m 16,1 km/h (3 Bft) 95,74 %
07.11.2018 07:58 9,2 C 8,9 C 7,8 C 91 % 1005,5 hPa 0,0 l/m 0 min 0 min 9 W/m 16,1 km/h (3 Bft) 95,65 %
07.11.2018 08:00 9,2 C 8,3 C 7,8 C 91 % 1005,6 hPa 0,0 l/m 0 min 0 min 11 W/m 16,1 km/h (3 Bft) 93,62 %
07.11.2018 08:02 9,2 C 8,3 C 7,8 C 91 % 1005,6 hPa 0,0 l/m 0 min 0 min 11 W/m 19,3 km/h (3 Bft) 95,74 %
07.11.2018 08:04 9,2 C 8,3 C 7,8 C 91 % 1005,6 hPa 0,0 l/m 0 min 0 min 12 W/m 12,9 km/h (3 Bft) 95,74 %
07.11.2018 08:08 9,2 C 8,3 C 7,8 C 91 % 1005,5 hPa 0,0 l/m 0 min 0 min 12 W/m 19,3 km/h (3 Bft) 95,74 %
07.11.2018 08:10 9,2 C 8,3 C 7,8 C 91 % 1005,6 hPa 0,0 l/m 0 min 0 min 12 W/m 16,1 km/h (3 Bft) 93,62 %
07.11.2018 08:12 9,2 C 8,3 C 7,8 C 91 % 1005,6 hPa 0,0 l/m 0 min 0 min 14 W/m 16,1 km/h (3 Bft) 95,74 %
07.11.2018 08:14 9,2 C 8,9 C 7,8 C 91 % 1005,7 hPa 0,0 l/m 0 min 0 min 14 W/m 9,7 km/h (2 Bft) 97,83 %
07.11.2018 08:16 9,2 C 8,9 C 7,8 C 91 % 1005,6 hPa 0,0 l/m 0 min 0 min 14 W/m 19,3 km/h (3 Bft) 97,87 %
07.11.2018 08:18 9,2 C 8,9 C 7,8 C 91 % 1005,6 hPa 0,0 l/m 0 min 0 min 16 W/m 19,3 km/h (3 Bft) 97,87 %
07.11.2018 08:20 9,2 C 8,9 C 7,8 C 91 % 1005,7 hPa 0,0 l/m 0 min 0 min 16 W/m 9,7 km/h (2 Bft) 95,74 %
07.11.2018 08:22 9,2 C 8,9 C 7,8 C 91 % 1005,7 hPa 0,0 l/m 0 min 0 min 16 W/m 12,9 km/h (3 Bft) 93,62 %
07.11.2018 08:24 9,2 C 8,9 C 7,8 C 91 % 1005,7 hPa 0,0 l/m 0 min 0 min 17 W/m 22,5 km/h (4 Bft) 97,87 %
07.11.2018 08:26 9,2 C 8,9 C 7,8 C 91 % 1005,7 hPa 0,0 l/m 0 min 0 min 18 W/m 19,3 km/h (3 Bft) 95,65 %
07.11.2018 08:28 9,2 C 8,9 C 8,3 C 91 % 1005,7 hPa 0,0 l/m 0 min 0 min 18 W/m 25,7 km/h (4 Bft) 95,74 %
07.11.2018 08:30 9,2 C 8,9 C 8,3 C 91 % 1005,7 hPa 0,0 l/m 0 min 0 min 18 W/m 25,7 km/h (4 Bft) 95,74 %
07.11.2018 08:32 9,2 C 8,9 C 8,3 C 91 % 1005,8 hPa 0,0 l/m 0 min 0 min 19 W/m 12,9 km/h (3 Bft) 93,75 %
07.11.2018 08:34 9,2 C 8,9 C 8,3 C 91 % 1005,6 hPa 0,0 l/m 0 min 0 min 19 W/m 22,5 km/h (4 Bft) 95,65 %
07.11.2018 08:38 9,3 C 9,4 C 8,3 C 91 % 1005,6 hPa 0,0 l/m 0 min 0 min 20 W/m 22,5 km/h (4 Bft) 97,89 %
07.11.2018 08:40 9,3 C 9,4 C 8,3 C 91 % 1005,7 hPa 0,0 l/m 0 min 0 min 21 W/m 25,7 km/h (4 Bft) 95,74 %
07.11.2018 08:42 9,4 C 9,4 C 8,3 C 91 % 1005,7 hPa 0,0 l/m 0 min 0 min 23 W/m 12,9 km/h (3 Bft) 100,00 %
07.11.2018 08:44 9,4 C 9,4 C 8,3 C 91 % 1005,6 hPa 0,0 l/m 0 min 0 min 23 W/m 19,3 km/h (3 Bft) 100,00 %
07.11.2018 08:46 9,4 C 9,4 C 8,3 C 91 % 1005,7 hPa 0,0 l/m 0 min 0 min 24 W/m 12,9 km/h (3 Bft) 100,00 %
07.11.2018 08:48 9,4 C 9,4 C 8,3 C 91 % 1005,7 hPa 0,0 l/m 0 min 0 min 25 W/m 12,9 km/h (3 Bft) 100,00 %
07.11.2018 08:50 9,4 C 9,4 C 8,3 C 91 % 1005,7 hPa 0,0 l/m 0 min 0 min 25 W/m 19,3 km/h (3 Bft) 100,00 %
07.11.2018 08:52 9,5 C 9,4 C 8,3 C 91 % 1005,6 hPa 0,0 l/m 0 min 0 min 27 W/m 16,1 km/h (3 Bft) 100,00 %
07.11.2018 08:54 9,6 C 9,4 C 8,9 C 90 % 1005,6 hPa 0,0 l/m 0 min 0 min 28 W/m 19,3 km/h (3 Bft) 100,00 %
07.11.2018 08:56 9,6 C 9,4 C 8,9 C 91 % 1005,6 hPa 0,0 l/m 0 min 0 min 30 W/m 25,7 km/h (4 Bft) 95,65 %
07.11.2018 08:58 9,6 C 9,4 C 8,9 C 90 % 1005,6 hPa 0,0 l/m 0 min 0 min 45 W/m 25,7 km/h (4 Bft) 100,00 %
07.11.2018 09:00 9,7 C 11,1 C 8,9 C 90 % 1005,6 hPa 0,0 l/m 2 min 0 min 139 W/m 25,7 km/h (4 Bft) 100,00 %
07.11.2018 09:02 9,7 C 12,2 C 8,9 C 90 % 1005,5 hPa 0,0 l/m 2 min 0 min 163 W/m 25,7 km/h (4 Bft) 100,00 %
07.11.2018 09:04 9,8 C 12,2 C 8,9 C 90 % 1005,6 hPa 0,0 l/m 2 min 0 min 171 W/m 25,7 km/h (4 Bft) 100,00 %
07.11.2018 09:08 10,0 C 13,3 C 8,9 C 90 % 1005,6 hPa 0,0 l/m 4 min 0 min 182 W/m 38,6 km/h (5 Bft) 100,00 %
07.11.2018 09:10 10,1 C 13,3 C 8,9 C 90 % 1005,6 hPa 0,0 l/m 2 min 0 min 190 W/m 22,5 km/h (4 Bft) 97,92 %
07.11.2018 09:12 10,2 C 13,3 C 9,4 C 90 % 1005,6 hPa 0,0 l/m 2 min 0 min 196 W/m 25,7 km/h (4 Bft) 100,00 %
07.11.2018 09:14 10,3 C 13,9 C 9,4 C 90 % 1005,6 hPa 0,0 l/m 2 min 0 min 200 W/m 19,3 km/h (3 Bft) 100,00 %
07.11.2018 09:16 10,4 C 13,9 C 9,4 C 89 % 1005,5 hPa 0,0 l/m 2 min 0 min 206 W/m 16,1 km/h (3 Bft) 100,00 %
07.11.2018 09:18 10,6 C 13,9 C 9,4 C 89 % 1005,6 hPa 0,0 l/m 2 min 0 min 210 W/m 25,7 km/h (4 Bft) 97,87 %
07.11.2018 09:20 10,7 C 13,9 C 9,4 C 88 % 1005,5 hPa 0,0 l/m 2 min 0 min 216 W/m 22,5 km/h (4 Bft) 100,00 %
07.11.2018 09:22 10,8 C 13,9 C 9,4 C 88 % 1005,6 hPa 0,0 l/m 2 min 0 min 220 W/m 16,1 km/h (3 Bft) 97,83 %
07.11.2018 09:24 10,9 C 13,9 C 9,4 C 88 % 1005,5 hPa 0,0 l/m 2 min 0 min 225 W/m 22,5 km/h (4 Bft) 97,87 %
07.11.2018 09:26 11,0 C 15,0 C 9,4 C 87 % 1005,6 hPa 0,0 l/m 2 min 0 min 230 W/m 25,7 km/h (4 Bft) 97,87 %
07.11.2018 09:28 11,1 C 15,0 C 9,4 C 87 % 1005,6 hPa 0,0 l/m 2 min 0 min 234 W/m 25,7 km/h (4 Bft) 97,87 %
07.11.2018 09:30 11,2 C 15,0 C 10,0 C 86 % 1005,5 hPa 0,0 l/m 2 min 0 min 239 W/m 22,5 km/h (4 Bft) 95,74 %
07.11.2018 09:32 11,3 C 14,4 C 10,0 C 86 % 1005,5 hPa 0,0 l/m 2 min 0 min 243 W/m 25,7 km/h (4 Bft) 97,87 %
07.11.2018 09:34 11,4 C 14,4 C 10,0 C 85 % 1005,5 hPa 0,0 l/m 2 min 0 min 246 W/m 25,7 km/h (4 Bft) 95,65 %
07.11.2018 09:38 11,6 C 15,0 C 10,0 C 85 % 1005,5 hPa 0,0 l/m 4 min 0 min 253 W/m 19,3 km/h (3 Bft) 97,87 %
07.11.2018 09:40 11,7 C 15,6 C 10,0 C 85 % 1005,5 hPa 0,0 l/m 2 min 0 min 260 W/m 19,3 km/h (3 Bft) 97,87 %
07.11.2018 09:42 11,7 C 15,0 C 10,6 C 84 % 1005,5 hPa 0,0 l/m 2 min 0 min 264 W/m 16,1 km/h (3 Bft) 97,87 %
07.11.2018 09:44 11,8 C 15,0 C 10,6 C 84 % 1005,5 hPa 0,0 l/m 2 min 0 min 267 W/m 22,5 km/h (4 Bft) 95,74 %
07.11.2018 09:46 11,9 C 14,4 C 10,6 C 84 % 1005,5 hPa 0,0 l/m 2 min 0 min 240 W/m 19,3 km/h (3 Bft) 95,65 %
07.11.2018 09:48 12,0 C 13,3 C 10,6 C 83 % 1005,4 hPa 0,0 l/m 2 min 0 min 275 W/m 19,3 km/h (3 Bft) 100,00 %
07.11.2018 09:50 12,1 C 12,8 C 10,6 C 83 % 1005,5 hPa 0,0 l/m 2 min 0 min 249 W/m 25,7 km/h (4 Bft) 97,87 %
07.11.2018 09:52 12,1 C 13,3 C 10,6 C 82 % 1005,4 hPa 0,0 l/m 2 min 0 min 185 W/m 29,0 km/h (5 Bft) 97,87 %
07.11.2018 09:54 12,2 C 14,4 C 10,6 C 82 % 1005,4 hPa 0,0 l/m 2 min 0 min 209 W/m 25,7 km/h (4 Bft) 93,62 %
07.11.2018 09:56 12,2 C 15,0 C 10,6 C 82 % 1005,5 hPa 0,0 l/m 2 min 0 min 240 W/m 22,5 km/h (4 Bft) 89,36 %
07.11.2018 09:58 12,2 C 16,1 C 10,6 C 82 % 1005,5 hPa 0,0 l/m 2 min 0 min 291 W/m 19,3 km/h (3 Bft) 95,65 %
07.11.2018 10:00 12,3 C 16,1 C 10,6 C 82 % 1005,6 hPa 0,0 l/m 2 min 0 min 302 W/m 29,0 km/h (5 Bft) 95,74 %
07.11.2018 10:02 12,3 C 15,6 C 10,6 C 82 % 1005,6 hPa 0,0 l/m 2 min 0 min 306 W/m 25,7 km/h (4 Bft) 87,23 %
07.11.2018 10:04 12,4 C 15,6 C 10,6 C 81 % 1005,6 hPa 0,0 l/m 2 min 0 min 310 W/m 25,7 km/h (4 Bft) 91,49 %
07.11.2018 10:08 12,6 C 16,1 C 10,6 C 81 % 1005,8 hPa 0,0 l/m 4 min 0 min 316 W/m 32,2 km/h (5 Bft) 94,68 %
07.11.2018 10:10 12,6 C 16,1 C 10,6 C 81 % 1005,7 hPa 0,0 l/m 2 min 0 min 322 W/m 29,0 km/h (5 Bft) 93,48 %
07.11.2018 10:12 12,7 C 16,1 C 10,6 C 80 % 1005,7 hPa 0,0 l/m 2 min 0 min 325 W/m 22,5 km/h (4 Bft) 93,62 %
07.11.2018 10:14 12,7 C 16,7 C 10,6 C 80 % 1005,6 hPa 0,0 l/m 2 min 0 min 330 W/m 29,0 km/h (5 Bft) 95,74 %
07.11.2018 10:16 12,8 C 16,7 C 11,1 C 80 % 1005,5 hPa 0,0 l/m 2 min 0 min 335 W/m 22,5 km/h (4 Bft) 93,62 %
07.11.2018 10:18 12,9 C 17,2 C 11,1 C 80 % 1005,6 hPa 0,0 l/m 2 min 0 min 339 W/m 22,5 km/h (4 Bft) 97,87 %
07.11.2018 10:20 12,9 C 17,2 C 11,1 C 80 % 1005,6 hPa 0,0 l/m 2 min 0 min 341 W/m 22,5 km/h (4 Bft) 97,37 %
07.11.2018 10:24 13,1 C 15,6 C 11,1 C 79 % 1005,7 hPa 0,0 l/m 4 min 0 min 356 W/m 29,0 km/h (5 Bft) 97,78 %
07.11.2018 10:26 13,2 C 15,6 C 11,1 C 79 % 1005,6 hPa 0,0 l/m 2 min 0 min 360 W/m 12,9 km/h (3 Bft) 93,88 %
07.11.2018 10:30 13,3 C 14,4 C 11,1 C 78 % 1005,8 hPa 0,0 l/m 4 min 0 min 285 W/m 12,9 km/h (3 Bft) 96,67 %
07.11.2018 10:32 13,3 C 14,4 C 11,7 C 78 % 1005,6 hPa 0,0 l/m 2 min 0 min 280 W/m 29,0 km/h (5 Bft) 95,74 %
07.11.2018 10:34 13,3 C 14,4 C 11,7 C 77 % 1005,6 hPa 0,0 l/m 2 min 0 min 212 W/m 19,3 km/h (3 Bft) 95,65 %
07.11.2018 10:38 13,3 C 13,9 C 11,7 C 77 % 1005,6 hPa 0,0 l/m 4 min 0 min 171 W/m 22,5 km/h (4 Bft) 96,91 %
07.11.2018 10:40 13,3 C 13,9 C 11,7 C 77 % 1005,6 hPa 0,0 l/m 0 min 0 min 157 W/m 22,5 km/h (4 Bft) 95,92 %
07.11.2018 10:42 13,3 C 13,9 C 11,7 C 77 % 1005,6 hPa 0,0 l/m 0 min 0 min 135 W/m 22,5 km/h (4 Bft) 100,00 %
07.11.2018 10:44 13,3 C 13,3 C 11,7 C 77 % 1005,7 hPa 0,0 l/m 0 min 0 min 119 W/m 25,7 km/h (4 Bft) 90,57 %
07.11.2018 10:46 13,3 C 13,3 C 11,7 C 77 % 1005,7 hPa 0,0 l/m 0 min 0 min 112 W/m 22,5 km/h (4 Bft) 98,00 %
07.11.2018 10:48 13,3 C 13,9 C 11,7 C 77 % 1005,6 hPa 0,0 l/m 0 min 0 min 127 W/m 29,0 km/h (5 Bft) 100,00 %
07.11.2018 10:50 13,3 C 13,3 C 11,7 C 77 % 1005,6 hPa 0,0 l/m 0 min 0 min 98 W/m 29,0 km/h (5 Bft) 100,00 %
07.11.2018 10:52 13,3 C 13,3 C 11,7 C 77 % 1005,6 hPa 0,0 l/m 0 min 0 min 101 W/m 22,5 km/h (4 Bft) 97,14 %
07.11.2018 10:54 13,2 C 13,3 C 11,7 C 77 % 1005,7 hPa 0,0 l/m 2 min 0 min 177 W/m 25,7 km/h (4 Bft) 97,87 %
07.11.2018 10:56 13,2 C 13,3 C 11,7 C 77 % 1005,8 hPa 0,0 l/m 2 min 0 min 176 W/m 29,0 km/h (5 Bft) 97,87 %
07.11.2018 10:58 13,2 C 13,9 C 11,7 C 77 % 1005,8 hPa 0,0 l/m 2 min 0 min 221 W/m 32,2 km/h (5 Bft) 98,11 %
07.11.2018 11:00 13,2 C 13,9 C 11,7 C 77 % 1005,7 hPa 0,0 l/m 2 min 0 min 341 W/m 29,0 km/h (5 Bft) 100,00 %
07.11.2018 11:02 13,2 C 15,0 C 12,2 C 77 % 1005,7 hPa 0,0 l/m 2 min 0 min 288 W/m 16,1 km/h (3 Bft) 95,92 %
07.11.2018 11:04 13,3 C 15,6 C 12,2 C 77 % 1005,8 hPa 0,0 l/m 2 min 0 min 269 W/m 22,5 km/h (4 Bft) 97,14 %
07.11.2018 11:08 13,3 C 15,0 C 12,2 C 77 % 1005,7 hPa 0,0 l/m 0 min 0 min 176 W/m 29,0 km/h (5 Bft) 98,00 %
07.11.2018 11:10 13,4 C 16,7 C 12,2 C 77 % 1005,7 hPa 0,0 l/m 2 min 0 min 326 W/m 16,1 km/h (3 Bft) 100,00 %
07.11.2018 11:12 13,5 C 17,8 C 12,2 C 77 % 1005,7 hPa 0,0 l/m 2 min 0 min 428 W/m 25,7 km/h (4 Bft) 100,00 %
07.11.2018 11:14 13,6 C 18,9 C 12,2 C 77 % 1005,7 hPa 0,0 l/m 2 min 0 min 431 W/m 16,1 km/h (3 Bft) 100,00 %
07.11.2018 11:16 13,7 C 19,4 C 12,2 C 77 % 1005,7 hPa 0,0 l/m 2 min 0 min 429 W/m 29,0 km/h (5 Bft) 98,15 %
07.11.2018 11:18 13,8 C 19,4 C 12,2 C 77 % 1005,7 hPa 0,0 l/m 2 min 0 min 427 W/m 16,1 km/h (3 Bft) 98,00 %
07.11.2018 11:20 13,9 C 19,4 C 12,8 C 76 % 1005,7 hPa 0,0 l/m 2 min 0 min 421 W/m 22,5 km/h (4 Bft) 100,00 %
07.11.2018 11:22 14,2 C 19,4 C 12,8 C 76 % 1005,7 hPa 0,0 l/m 2 min 0 min 388 W/m 16,1 km/h (3 Bft) 100,00 %
07.11.2018 11:24 14,2 C 18,9 C 12,8 C 75 % 1005,6 hPa 0,0 l/m 2 min 0 min 367 W/m 22,5 km/h (4 Bft) 97,87 %
07.11.2018 11:26 14,3 C 19,4 C 12,8 C 74 % 1005,7 hPa 0,0 l/m 2 min 0 min 418 W/m 16,1 km/h (3 Bft) 97,14 %
07.11.2018 11:28 14,4 C 20,0 C 12,8 C 74 % 1005,7 hPa 0,0 l/m 2 min 0 min 420 W/m 12,9 km/h (3 Bft) 100,00 %
07.11.2018 11:30 14,6 C 20,0 C 12,8 C 74 % 1005,6 hPa 0,0 l/m 2 min 0 min 407 W/m 19,3 km/h (3 Bft) 100,00 %
07.11.2018 11:32 14,7 C 20,0 C 12,8 C 73 % 1005,6 hPa 0,0 l/m 2 min 0 min 427 W/m 19,3 km/h (3 Bft) 95,92 %
07.11.2018 11:34 14,8 C 19,4 C 12,8 C 73 % 1005,6 hPa 0,0 l/m 2 min 0 min 430 W/m 25,7 km/h (4 Bft) 97,14 %
07.11.2018 11:38 14,9 C 19,4 C 12,8 C 72 % 1005,6 hPa 0,0 l/m 4 min 0 min 423 W/m 19,3 km/h (3 Bft) 99,02 %
07.11.2018 11:40 15,0 C 20,0 C 12,8 C 73 % 1005,6 hPa 0,0 l/m 2 min 0 min 420 W/m 16,1 km/h (3 Bft) 98,00 %
07.11.2018 11:42 15,1 C 20,6 C 12,8 C 72 % 1005,6 hPa 0,0 l/m 2 min 0 min 435 W/m 16,1 km/h (3 Bft) 97,92 %
07.11.2018 11:44 15,2 C 20,0 C 12,8 C 72 % 1005,6 hPa 0,0 l/m 2 min 0 min 435 W/m 25,7 km/h (4 Bft) 97,14 %
07.11.2018 11:46 15,2 C 18,9 C 12,8 C 71 % 1005,7 hPa 0,0 l/m 2 min 0 min 434 W/m 29,0 km/h (5 Bft) 96,30 %
07.11.2018 11:48 15,3 C 18,9 C 13,3 C 71 % 1005,7 hPa 0,0 l/m 2 min 0 min 425 W/m 25,7 km/h (4 Bft) 100,00 %
07.11.2018 11:50 15,3 C 18,9 C 13,3 C 71 % 1005,6 hPa 0,0 l/m 2 min 0 min 436 W/m 25,7 km/h (4 Bft) 97,92 %
07.11.2018 11:52 15,3 C 19,4 C 13,3 C 71 % 1005,7 hPa 0,0 l/m 2 min 0 min 440 W/m 25,7 km/h (4 Bft) 97,87 %
07.11.2018 11:54 15,4 C 19,4 C 13,3 C 71 % 1005,6 hPa 0,0 l/m 2 min 0 min 411 W/m 22,5 km/h (4 Bft) 95,74 %
07.11.2018 11:56 15,4 C 18,9 C 13,3 C 70 % 1005,5 hPa 0,0 l/m 2 min 0 min 436 W/m 29,0 km/h (5 Bft) 97,14 %
07.11.2018 11:58 15,4 C 19,4 C 13,3 C 70 % 1005,6 hPa 0,0 l/m 2 min 0 min 422 W/m 32,2 km/h (5 Bft) 98,15 %
07.11.2018 12:00 15,5 C 18,9 C 13,3 C 70 % 1005,5 hPa 0,0 l/m 2 min 0 min 393 W/m 29,0 km/h (5 Bft) 98,00 %
07.11.2018 12:02 15,5 C 19,4 C 13,3 C 70 % 1005,5 hPa 0,0 l/m 2 min 0 min 412 W/m 29,0 km/h (5 Bft) 97,92 %
07.11.2018 12:04 15,6 C 19,4 C 13,9 C 70 % 1005,5 hPa 0,0 l/m 2 min 0 min 434 W/m 22,5 km/h (4 Bft) 97,14 %
07.11.2018 12:08 15,6 C 21,1 C 13,9 C 70 % 1005,5 hPa 0,0 l/m 4 min 0 min 428 W/m 16,1 km/h (3 Bft) 98,02 %
07.11.2018 12:10 15,7 C 20,6 C 14,4 C 70 % 1005,5 hPa 0,0 l/m 2 min 0 min 393 W/m 25,7 km/h (4 Bft) 96,00 %
07.11.2018 12:12 15,8 C 20,6 C 15,0 C 70 % 1005,4 hPa 0,0 l/m 2 min 0 min 421 W/m 22,5 km/h (4 Bft) 93,62 %
07.11.2018 12:14 15,8 C 21,7 C 16,7 C 70 % 1005,3 hPa 0,0 l/m 2 min 0 min 452 W/m 9,7 km/h (2 Bft) 93,75 %
07.11.2018 12:16 15,9 C 21,1 C 18,9 C 70 % 1005,4 hPa 0,0 l/m 2 min 0 min 438 W/m 19,3 km/h (3 Bft) 94,29 %
07.11.2018 12:18 16,0 C 19,4 C 18,3 C 69 % 1005,4 hPa 0,0 l/m 2 min 0 min 346 W/m 25,7 km/h (4 Bft) 96,30 %
07.11.2018 12:20 16,1 C 18,9 C 16,1 C 69 % 1005,3 hPa 0,0 l/m 2 min 0 min 368 W/m 32,2 km/h (5 Bft) 94,00 %
07.11.2018 12:22 16,1 C 18,3 C 15,6 C 68 % 1005,4 hPa 0,0 l/m 2 min 0 min 326 W/m 19,3 km/h (3 Bft) 97,87 %
07.11.2018 12:24 16,1 C 18,9 C 15,0 C 68 % 1005,4 hPa 0,0 l/m 2 min 0 min 297 W/m 29,0 km/h (5 Bft) 95,74 %
07.11.2018 12:26 16,1 C 18,9 C 14,4 C 68 % 1005,4 hPa 0,0 l/m 2 min 0 min 385 W/m 32,2 km/h (5 Bft) 95,83 %
07.11.2018 12:28 16,1 C 18,9 C 14,4 C 68 % 1005,4 hPa 0,0 l/m 2 min 0 min 380 W/m 25,7 km/h (4 Bft) 93,62 %
07.11.2018 12:30 16,1 C 18,9 C 14,4 C 69 % 1005,4 hPa 0,0 l/m 2 min 0 min 413 W/m 29,0 km/h (5 Bft) 94,29 %
07.11.2018 12:32 16,1 C 18,9 C 14,4 C 69 % 1005,3 hPa 0,0 l/m 2 min 0 min 408 W/m 25,7 km/h (4 Bft) 92,59 %
07.11.2018 12:34 16,1 C 19,4 C 14,4 C 69 % 1005,2 hPa 0,0 l/m 2 min 0 min 415 W/m 22,5 km/h (4 Bft) 94,00 %
07.11.2018 12:38 16,1 C 18,9 C 13,9 C 69 % 1005,4 hPa 0,0 l/m 4 min 0 min 426 W/m 22,5 km/h (4 Bft) 93,68 %
07.11.2018 12:40 16,1 C 19,4 C 14,4 C 69 % 1005,3 hPa 0,0 l/m 2 min 0 min 448 W/m 16,1 km/h (3 Bft) 91,43 %
07.11.2018 12:42 16,1 C 19,4 C 14,4 C 69 % 1005,4 hPa 0,0 l/m 2 min 0 min 366 W/m 25,7 km/h (4 Bft) 94,44 %
07.11.2018 12:44 16,2 C 18,9 C 14,4 C 69 % 1005,4 hPa 0,0 l/m 2 min 0 min 316 W/m 29,0 km/h (5 Bft) 90,00 %
07.11.2018 12:46 16,2 C 18,9 C 14,4 C 69 % 1005,4 hPa 0,0 l/m 2 min 0 min 339 W/m 22,5 km/h (4 Bft) 91,67 %
07.11.2018 12:48 16,2 C 18,9 C 14,4 C 69 % 1005,3 hPa 0,0 l/m 2 min 0 min 274 W/m 22,5 km/h (4 Bft) 97,14 %
07.11.2018 12:50 16,2 C 18,3 C 14,4 C 69 % 1005,4 hPa 0,0 l/m 2 min 0 min 332 W/m 32,2 km/h (5 Bft) 90,91 %
07.11.2018 12:52 16,2 C 17,8 C 14,4 C 69 % 1005,4 hPa 0,0 l/m 2 min 0 min 226 W/m 16,1 km/h (3 Bft) 93,62 %
07.11.2018 12:54 16,3 C 16,7 C 14,4 C 69 % 1005,5 hPa 0,0 l/m 0 min 0 min 162 W/m 25,7 km/h (4 Bft) 93,62 %
07.11.2018 12:56 16,2 C 16,7 C 14,4 C 69 % 1005,5 hPa 0,0 l/m 0 min 0 min 181 W/m 19,3 km/h (3 Bft) 96,00 %
07.11.2018 12:58 16,2 C 16,7 C 14,4 C 69 % 1005,4 hPa 0,0 l/m 0 min 0 min 155 W/m 12,9 km/h (3 Bft) 85,71 %
07.11.2018 13:00 16,2 C 16,1 C 14,4 C 69 % 1005,4 hPa 0,0 l/m 0 min 0 min 135 W/m 16,1 km/h (3 Bft) 95,74 %
07.11.2018 13:02 16,2 C 16,1 C 14,4 C 69 % 1005,4 hPa 0,0 l/m 0 min 0 min 134 W/m 12,9 km/h (3 Bft) 96,36 %
07.11.2018 13:04 16,2 C 16,1 C 14,4 C 69 % 1005,4 hPa 0,0 l/m 0 min 0 min 132 W/m 9,7 km/h (2 Bft) 93,88 %
07.11.2018 13:08 16,1 C 16,1 C 14,4 C 69 % 1005,3 hPa 0,0 l/m 0 min 0 min 131 W/m 19,3 km/h (3 Bft) 94,74 %
07.11.2018 13:10 16,1 C 16,1 C 14,4 C 69 % 1005,4 hPa 0,0 l/m 0 min 0 min 155 W/m 16,1 km/h (3 Bft) 94,29 %
07.11.2018 13:12 16,1 C 16,1 C 14,4 C 68 % 1005,4 hPa 0,0 l/m 0 min 0 min 178 W/m 19,3 km/h (3 Bft) 100,00 %
07.11.2018 13:14 16,1 C 16,1 C 14,4 C 68 % 1005,4 hPa 0,0 l/m 0 min 0 min 150 W/m 22,5 km/h (4 Bft) 98,00 %
07.11.2018 13:16 16,0 C 16,1 C 14,4 C 67 % 1005,3 hPa 0,0 l/m 0 min 0 min 144 W/m 19,3 km/h (3 Bft) 97,87 %
07.11.2018 13:18 16,0 C 16,1 C 14,4 C 67 % 1005,3 hPa 0,0 l/m 0 min 0 min 144 W/m 22,5 km/h (4 Bft) 97,22 %
07.11.2018 13:20 16,0 C 16,1 C 14,4 C 67 % 1005,4 hPa 0,0 l/m 0 min 0 min 157 W/m 22,5 km/h (4 Bft) 100,00 %
07.11.2018 13:22 16,0 C 16,1 C 14,4 C 67 % 1005,4 hPa 0,0 l/m 0 min 0 min 154 W/m 16,1 km/h (3 Bft) 100,00 %
07.11.2018 13:24 16,0 C 16,1 C 14,4 C 67 % 1005,4 hPa 0,0 l/m 0 min 0 min 150 W/m 16,1 km/h (3 Bft) 97,87 %
07.11.2018 13:26 16,0 C 16,1 C 15,0 C 67 % 1005,4 hPa 0,0 l/m 0 min 0 min 148 W/m 9,7 km/h (2 Bft) 100,00 %
07.11.2018 13:28 16,0 C 16,1 C 15,0 C 67 % 1005,4 hPa 0,0 l/m 0 min 0 min 144 W/m 12,9 km/h (3 Bft) 100,00 %
07.11.2018 13:30 16,0 C 16,1 C 15,0 C 67 % 1005,3 hPa 0,0 l/m 0 min 0 min 144 W/m 12,9 km/h (3 Bft) 95,74 %
07.11.2018 13:32 16,0 C 16,1 C 14,4 C 67 % 1005,3 hPa 0,0 l/m 0 min 0 min 145 W/m 22,5 km/h (4 Bft) 97,96 %
07.11.2018 13:34 16,0 C 16,1 C 14,4 C 67 % 1005,3 hPa 0,0 l/m 0 min 0 min 149 W/m 19,3 km/h (3 Bft) 100,00 %
07.11.2018 13:38 16,0 C 16,7 C 15,0 C 66 % 1005,2 hPa 0,0 l/m 4 min 0 min 186 W/m 22,5 km/h (4 Bft) 100,00 %
07.11.2018 13:40 16,0 C 16,7 C 15,0 C 66 % 1005,1 hPa 0,0 l/m 2 min 0 min 199 W/m 29,0 km/h (5 Bft) 100,00 %
07.11.2018 13:42 16,0 C 16,7 C 15,0 C 67 % 1005,1 hPa 0,0 l/m 2 min 0 min 204 W/m 16,1 km/h (3 Bft) 100,00 %
07.11.2018 13:44 16,0 C 17,8 C 15,0 C 67 % 1005,1 hPa 0,0 l/m 2 min 0 min 243 W/m 12,9 km/h (3 Bft) 100,00 %
07.11.2018 13:46 16,1 C 17,8 C 15,0 C 67 % 1005,2 hPa 0,0 l/m 2 min 0 min 266 W/m 19,3 km/h (3 Bft) 100,00 %
07.11.2018 13:48 16,1 C 17,8 C 15,0 C 66 % 1005,1 hPa 0,0 l/m 2 min 0 min 263 W/m 25,7 km/h (4 Bft) 97,96 %
07.11.2018 13:50 16,1 C 17,8 C 15,0 C 66 % 1005,2 hPa 0,0 l/m 2 min 0 min 254 W/m 19,3 km/h (3 Bft) 100,00 %
07.11.2018 13:52 16,2 C 18,9 C 15,0 C 66 % 1005,4 hPa 0,0 l/m 2 min 0 min 351 W/m 16,1 km/h (3 Bft) 100,00 %
07.11.2018 13:54 16,2 C 18,9 C 15,0 C 66 % 1005,3 hPa 0,0 l/m 2 min 0 min 307 W/m 12,9 km/h (3 Bft) 100,00 %
07.11.2018 13:56 16,3 C 17,8 C 15,6 C 66 % 1005,2 hPa 0,0 l/m 2 min 0 min 175 W/m 19,3 km/h (3 Bft) 100,00 %
07.11.2018 13:58 16,3 C 17,2 C 15,0 C 66 % 1005,3 hPa 0,0 l/m 2 min 0 min 174 W/m 16,1 km/h (3 Bft) 95,83 %
07.11.2018 14:00 16,3 C 17,2 C 15,0 C 66 % 1005,5 hPa 0,0 l/m 2 min 0 min 164 W/m 16,1 km/h (3 Bft) 100,00 %
07.11.2018 14:02 16,4 C 16,7 C 15,0 C 66 % 1005,4 hPa 0,0 l/m 0 min 0 min 155 W/m 25,7 km/h (4 Bft) 100,00 %
07.11.2018 14:04 16,4 C 16,1 C 15,0 C 66 % 1005,5 hPa 0,0 l/m 0 min 0 min 144 W/m 22,5 km/h (4 Bft) 100,00 %
07.11.2018 14:08 16,4 C 16,1 C 15,0 C 66 % 1005,6 hPa 0,0 l/m 0 min 0 min 123 W/m 25,7 km/h (4 Bft) 98,96 %
07.11.2018 14:10 16,4 C 16,1 C 15,0 C 65 % 1005,6 hPa 0,0 l/m 0 min 0 min 110 W/m 29,0 km/h (5 Bft) 100,00 %
07.11.2018 14:12 16,3 C 16,1 C 15,0 C 66 % 1005,6 hPa 0,0 l/m 0 min 0 min 106 W/m 16,1 km/h (3 Bft) 97,37 %
07.11.2018 14:14 16,3 C 16,1 C 15,0 C 66 % 1005,7 hPa 0,0 l/m 0 min 0 min 102 W/m 12,9 km/h (3 Bft) 100,00 %
07.11.2018 14:16 16,3 C 16,1 C 15,0 C 66 % 1005,6 hPa 0,0 l/m 0 min 0 min 98 W/m 16,1 km/h (3 Bft) 100,00 %
07.11.2018 14:18 16,3 C 16,1 C 15,0 C 66 % 1005,7 hPa 0,0 l/m 0 min 0 min 95 W/m 16,1 km/h (3 Bft) 100,00 %
07.11.2018 14:20 16,3 C 16,1 C 15,0 C 66 % 1005,7 hPa 0,0 l/m 0 min 0 min 91 W/m 22,5 km/h (4 Bft) 100,00 %
07.11.2018 14:22 16,3 C 15,6 C 14,4 C 65 % 1005,7 hPa 0,0 l/m 0 min 0 min 87 W/m 25,7 km/h (4 Bft) 100,00 %
07.11.2018 14:24 16,2 C 15,6 C 15,0 C 65 % 1005,7 hPa 0,0 l/m 0 min 0 min 82 W/m 12,9 km/h (3 Bft) 100,00 %
07.11.2018 14:26 16,2 C 15,6 C 15,0 C 65 % 1005,8 hPa 0,0 l/m 0 min 0 min 77 W/m 22,5 km/h (4 Bft) 95,74 %
07.11.2018 14:28 16,2 C 15,6 C 14,4 C 66 % 1005,8 hPa 0,0 l/m 0 min 0 min 71 W/m 19,3 km/h (3 Bft) 93,48 %
07.11.2018 14:30 16,2 C 15,6 C 14,4 C 66 % 1005,8 hPa 0,0 l/m 0 min 0 min 65 W/m 16,1 km/h (3 Bft) 100,00 %
07.11.2018 14:32 16,1 C 15,6 C 14,4 C 66 % 1005,8 hPa 0,0 l/m 0 min 0 min 60 W/m 12,9 km/h (3 Bft) 100,00 %
07.11.2018 14:34 16,1 C 15,6 C 14,4 C 66 % 1005,9 hPa 0,0 l/m 0 min 0 min 55 W/m 22,5 km/h (4 Bft) 100,00 %
07.11.2018 14:38 16,0 C 15,0 C 14,4 C 66 % 1005,9 hPa 0,0 l/m 0 min 0 min 50 W/m 35,4 km/h (5 Bft) 98,04 %
07.11.2018 14:40 16,0 C 15,0 C 14,4 C 66 % 1005,9 hPa 0,0 l/m 0 min 0 min 53 W/m 19,3 km/h (3 Bft) 100,00 %
07.11.2018 14:42 15,9 C 15,0 C 14,4 C 66 % 1005,9 hPa 0,0 l/m 0 min 0 min 59 W/m 12,9 km/h (3 Bft) 100,00 %
07.11.2018 14:44 15,9 C 15,0 C 14,4 C 66 % 1005,9 hPa 0,0 l/m 0 min 0 min 64 W/m 22,5 km/h (4 Bft) 100,00 %
07.11.2018 14:46 15,9 C 15,0 C 14,4 C 66 % 1006,0 hPa 0,0 l/m 0 min 0 min 70 W/m 19,3 km/h (3 Bft) 93,62 %
07.11.2018 14:48 15,8 C 15,0 C 14,4 C 67 % 1006,0 hPa 0,0 l/m 0 min 0 min 76 W/m 12,9 km/h (3 Bft) 100,00 %
07.11.2018 14:50 15,8 C 15,6 C 14,4 C 67 % 1006,1 hPa 0,0 l/m 0 min 0 min 83 W/m 9,7 km/h (2 Bft) 100,00 %
07.11.2018 14:52 15,8 C 15,6 C 14,4 C 67 % 1006,0 hPa 0,0 l/m 0 min 0 min 87 W/m 9,7 km/h (2 Bft) 95,65 %
07.11.2018 14:54 15,8 C 15,6 C 14,4 C 67 % 1006,1 hPa 0,0 l/m 0 min 0 min 86 W/m 19,3 km/h (3 Bft) 100,00 %
07.11.2018 14:56 15,8 C 15,0 C 14,4 C 67 % 1006,0 hPa 0,0 l/m 0 min 0 min 79 W/m 19,3 km/h (3 Bft) 100,00 %
07.11.2018 14:58 15,8 C 15,0 C 14,4 C 67 % 1006,0 hPa 0,0 l/m 0 min 0 min 71 W/m 22,5 km/h (4 Bft) 100,00 %
07.11.2018 15:00 15,7 C 15,0 C 14,4 C 67 % 1006,0 hPa 0,0 l/m 0 min 0 min 61 W/m 22,5 km/h (4 Bft) 100,00 %
07.11.2018 15:02 15,7 C 15,0 C 14,4 C 67 % 1006,1 hPa 0,0 l/m 0 min 0 min 51 W/m 22,5 km/h (4 Bft) 100,00 %
07.11.2018 15:04 15,7 C 15,0 C 14,4 C 67 % 1006,1 hPa 0,0 l/m 0 min 0 min 40 W/m 16,1 km/h (3 Bft) 100,00 %
07.11.2018 15:08 15,7 C 15,0 C 13,9 C 68 % 1006,1 hPa 0,0 l/m 0 min 0 min 33 W/m 22,5 km/h (4 Bft) 98,95 %
07.11.2018 15:10 15,7 C 15,0 C 13,9 C 68 % 1006,2 hPa 0,0 l/m 0 min 0 min 36 W/m 16,1 km/h (3 Bft) 97,87 %
07.11.2018 15:12 15,6 C 15,0 C 13,9 C 68 % 1006,2 hPa 0,0 l/m 0 min 0 min 40 W/m 9,7 km/h (2 Bft) 97,73 %
07.11.2018 15:14 15,6 C 15,0 C 13,9 C 68 % 1006,3 hPa 0,0 l/m 0 min 0 min 40 W/m 22,5 km/h (4 Bft) 95,92 %
07.11.2018 15:16 15,6 C 15,0 C 13,9 C 68 % 1006,3 hPa 0,0 l/m 0 min 0 min 39 W/m 16,1 km/h (3 Bft) 95,65 %
07.11.2018 15:18 15,6 C 15,0 C 13,9 C 68 % 1006,2 hPa 0,0 l/m 0 min 0 min 37 W/m 9,7 km/h (2 Bft) 95,83 %
07.11.2018 15:20 15,6 C 15,0 C 13,9 C 68 % 1006,1 hPa 0,0 l/m 0 min 0 min 37 W/m 16,1 km/h (3 Bft) 97,87 %
07.11.2018 15:22 15,6 C 15,0 C 13,9 C 68 % 1006,2 hPa 0,0 l/m 0 min 0 min 37 W/m 16,1 km/h (3 Bft) 95,74 %
07.11.2018 15:24 15,6 C 15,0 C 13,9 C 68 % 1006,1 hPa 0,0 l/m 0 min 0 min 35 W/m 22,5 km/h (4 Bft) 95,74 %
07.11.2018 15:26 15,5 C 15,0 C 13,9 C 68 % 1006,2 hPa 0,0 l/m 0 min 0 min 33 W/m 19,3 km/h (3 Bft) 92,59 %
07.11.2018 15:28 15,5 C 15,0 C 13,9 C 68 % 1006,2 hPa 0,0 l/m 0 min 0 min 31 W/m 16,1 km/h (3 Bft) 94,74 %
07.11.2018 15:30 15,5 C 15,0 C 13,9 C 68 % 1006,2 hPa 0,0 l/m 0 min 0 min 29 W/m 16,1 km/h (3 Bft) 93,75 %
07.11.2018 15:32 15,5 C 15,0 C 13,9 C 68 % 1006,2 hPa 0,0 l/m 0 min 0 min 28 W/m 12,9 km/h (3 Bft) 95,74 %
07.11.2018 15:34 15,5 C 15,0 C 13,9 C 67 % 1006,2 hPa 0,0 l/m 0 min 0 min 30 W/m 22,5 km/h (4 Bft) 92,73 %
07.11.2018 15:38 15,5 C 15,0 C 13,9 C 67 % 1006,2 hPa 0,0 l/m 0 min 0 min 30 W/m 19,3 km/h (3 Bft) 90,48 %
07.11.2018 15:40 15,4 C 15,0 C 13,9 C 67 % 1006,3 hPa 0,0 l/m 0 min 0 min 29 W/m 12,9 km/h (3 Bft) 93,75 %
07.11.2018 15:42 15,4 C 15,0 C 13,9 C 67 % 1006,3 hPa 0,0 l/m 0 min 0 min 26 W/m 19,3 km/h (3 Bft) 91,49 %
07.11.2018 15:44 15,4 C 15,0 C 13,9 C 67 % 1006,3 hPa 0,0 l/m 0 min 0 min 23 W/m 19,3 km/h (3 Bft) 92,73 %
07.11.2018 15:46 15,4 C 15,0 C 13,9 C 67 % 1006,3 hPa 0,0 l/m 0 min 0 min 21 W/m 16,1 km/h (3 Bft) 92,11 %
07.11.2018 15:48 15,5 C 15,0 C 13,9 C 67 % 1006,3 hPa 0,0 l/m 0 min 0 min 19 W/m 16,1 km/h (3 Bft) 95,74 %
07.11.2018 15:50 15,4 C 15,0 C 13,9 C 68 % 1006,3 hPa 0,0 l/m 0 min 2 min 19 W/m 16,1 km/h (3 Bft) 95,83 %
07.11.2018 15:52 15,4 C 14,4 C 13,9 C 68 % 1006,3 hPa 0,0 l/m 0 min 2 min 19 W/m 9,7 km/h (2 Bft) 91,30 %
07.11.2018 15:54 15,4 C 13,9 C 13,3 C 69 % 1006,4 hPa 0,0 l/m 0 min 2 min 18 W/m 9,7 km/h (2 Bft) 95,74 %
07.11.2018 15:56 15,4 C 13,9 C 13,3 C 69 % 1006,4 hPa 0,0 l/m 0 min 2 min 17 W/m 9,7 km/h (2 Bft) 93,62 %
07.11.2018 15:58 15,4 C 13,9 C 13,3 C 69 % 1006,4 hPa 0,0 l/m 0 min 2 min 13 W/m 9,7 km/h (2 Bft) 92,73 %
07.11.2018 16:00 15,4 C 13,3 C 13,3 C 70 % 1006,4 hPa 0,0 l/m 0 min 2 min 11 W/m 9,7 km/h (2 Bft) 94,74 %
07.11.2018 16:02 15,4 C 13,3 C 13,3 C 70 % 1006,5 hPa 0,0 l/m 0 min 2 min 9 W/m 9,7 km/h (2 Bft) 93,75 %
07.11.2018 16:04 15,4 C 13,3 C 13,3 C 71 % 1006,5 hPa 0,0 l/m 0 min 2 min 11 W/m 12,9 km/h (3 Bft) 95,65 %
07.11.2018 16:08 15,3 C 13,3 C 12,8 C 71 % 1006,6 hPa 0,0 l/m 0 min 4 min 9 W/m 12,9 km/h (3 Bft) 93,14 %
07.11.2018 16:10 15,3 C 12,8 C 12,2 C 72 % 1006,6 hPa 0,0 l/m 0 min 2 min 5 W/m 12,9 km/h (3 Bft) 93,48 %
07.11.2018 16:12 15,3 C 11,7 C 11,7 C 73 % 1006,7 hPa 0,0 l/m 0 min 2 min 3 W/m 12,9 km/h (3 Bft) 92,31 %
07.11.2018 16:14 15,2 C 11,1 C 11,1 C 74 % 1006,7 hPa 0,2 l/m 0 min 2 min 0 W/m 9,7 km/h (2 Bft) 95,92 %
07.11.2018 16:16 15,2 C 11,1 C 11,1 C 74 % 1006,7 hPa 0,0 l/m 0 min 2 min 0 W/m 9,7 km/h (2 Bft) 91,67 %
07.11.2018 16:18 15,1 C 10,6 C 10,6 C 75 % 1006,7 hPa 0,0 l/m 0 min 2 min 0 W/m 6,4 km/h (2 Bft) 95,74 %
07.11.2018 16:20 15,1 C 10,6 C 10,6 C 76 % 1006,7 hPa 0,2 l/m 0 min 2 min 0 W/m 9,7 km/h (2 Bft) 96,36 %
07.11.2018 16:22 14,9 C 10,6 C 10,6 C 76 % 1006,7 hPa 0,0 l/m 0 min 2 min 0 W/m 9,7 km/h (2 Bft) 97,14 %
07.11.2018 16:24 14,9 C 10,6 C 10,6 C 76 % 1006,7 hPa 0,0 l/m 0 min 2 min 0 W/m 9,7 km/h (2 Bft) 97,83 %
07.11.2018 16:26 14,8 C 10,6 C 10,6 C 77 % 1006,7 hPa 0,0 l/m 0 min 2 min 0 W/m 16,1 km/h (3 Bft) 100,00 %
07.11.2018 16:28 14,7 C 10,6 C 10,6 C 77 % 1006,7 hPa 0,0 l/m 0 min 2 min 0 W/m 12,9 km/h (3 Bft) 100,00 %
07.11.2018 16:30 14,6 C 10,6 C 10,6 C 77 % 1006,8 hPa 0,0 l/m 0 min 2 min 0 W/m 12,9 km/h (3 Bft) 100,00 %
07.11.2018 16:32 14,5 C 10,6 C 10,6 C 78 % 1006,8 hPa 0,0 l/m 0 min 2 min 0 W/m 9,7 km/h (2 Bft) 95,35 %
07.11.2018 16:34 14,4 C 10,6 C 10,6 C 78 % 1006,7 hPa 0,2 l/m 0 min 2 min 0 W/m 6,4 km/h (2 Bft) 100,00 %
07.11.2018 16:38 14,2 C 10,6 C 10,6 C 79 % 1006,8 hPa 0,0 l/m 0 min 0 min 0 W/m 12,9 km/h (3 Bft) 98,94 %
07.11.2018 16:40 14,2 C 10,6 C 10,6 C 79 % 1006,8 hPa 0,0 l/m 0 min 2 min 0 W/m 16,1 km/h (3 Bft) 100,00 %
07.11.2018 16:42 14,2 C 10,6 C 10,6 C 79 % 1006,8 hPa 0,0 l/m 0 min 2 min 0 W/m 12,9 km/h (3 Bft) 97,67 %
07.11.2018 16:44 14,2 C 10,6 C 10,6 C 80 % 1006,8 hPa 0,0 l/m 0 min 0 min 0 W/m 6,4 km/h (2 Bft) 100,00 %
07.11.2018 16:46 14,1 C 11,1 C 10,6 C 80 % 1006,9 hPa 0,0 l/m 0 min 0 min 0 W/m 12,9 km/h (3 Bft) 100,00 %
07.11.2018 16:48 13,9 C 11,1 C 10,6 C 80 % 1006,8 hPa 0,0 l/m 0 min 0 min 0 W/m 12,9 km/h (3 Bft) 100,00 %
07.11.2018 16:50 13,9 C 11,1 C 10,6 C 80 % 1006,9 hPa 0,0 l/m 0 min 0 min 0 W/m 16,1 km/h (3 Bft) 100,00 %
07.11.2018 16:52 13,8 C 11,1 C 10,6 C 80 % 1006,8 hPa 0,0 l/m 0 min 0 min 0 W/m 6,4 km/h (2 Bft) 97,87 %
07.11.2018 16:54 13,7 C 11,1 C 10,6 C 81 % 1006,8 hPa 0,0 l/m 0 min 0 min 0 W/m 9,7 km/h (2 Bft) 100,00 %
07.11.2018 16:56 13,7 C 11,1 C 10,6 C 81 % 1006,9 hPa 0,0 l/m 0 min 0 min 0 W/m 6,4 km/h (2 Bft) 100,00 %
07.11.2018 16:58 13,7 C 11,1 C 10,6 C 81 % 1006,8 hPa 0,0 l/m 0 min 0 min 0 W/m 9,7 km/h (2 Bft) 100,00 %
07.11.2018 17:00 13,6 C 11,1 C 10,6 C 81 % 1006,9 hPa 0,0 l/m 0 min 0 min 0 W/m 6,4 km/h (2 Bft) 100,00 %
07.11.2018 17:02 13,6 C 11,1 C 10,6 C 81 % 1006,9 hPa 0,0 l/m 0 min 0 min 0 W/m 12,9 km/h (3 Bft) 95,74 %
07.11.2018 17:04 13,6 C 11,1 C 10,6 C 81 % 1006,9 hPa 0,0 l/m 0 min 0 min 0 W/m 6,4 km/h (2 Bft) 100,00 %
07.11.2018 17:08 13,4 C 11,1 C 10,6 C 81 % 1006,9 hPa 0,0 l/m 0 min 0 min 0 W/m 12,9 km/h (3 Bft) 100,00 %
07.11.2018 17:10 13,4 C 11,1 C 10,6 C 81 % 1006,9 hPa 0,0 l/m 0 min 0 min 0 W/m 9,7 km/h (2 Bft) 100,00 %
07.11.2018 17:12 13,4 C 11,1 C 10,6 C 81 % 1007,0 hPa 0,0 l/m 0 min 0 min 0 W/m 12,9 km/h (3 Bft) 97,14 %
07.11.2018 17:14 13,4 C 11,1 C 10,6 C 81 % 1007,0 hPa 0,0 l/m 0 min 0 min 0 W/m 9,7 km/h (2 Bft) 100,00 %
07.11.2018 17:16 13,4 C 11,1 C 10,6 C 81 % 1007,0 hPa 0,0 l/m 0 min 0 min 0 W/m 9,7 km/h (2 Bft) 100,00 %
07.11.2018 17:18 13,3 C 11,1 C 10,6 C 81 % 1007,0 hPa 0,0 l/m 0 min 0 min 0 W/m 12,9 km/h (3 Bft) 100,00 %
07.11.2018 17:20 13,3 C 11,1 C 10,6 C 81 % 1007,0 hPa 0,0 l/m 0 min 0 min 0 W/m 6,4 km/h (2 Bft) 97,92 %
07.11.2018 17:22 13,3 C 11,1 C 10,6 C 81 % 1007,0 hPa 0,0 l/m 0 min 0 min 0 W/m 9,7 km/h (2 Bft) 100,00 %
07.11.2018 17:24 13,3 C 11,1 C 10,6 C 81 % 1007,0 hPa 0,0 l/m 0 min 0 min 0 W/m 6,4 km/h (2 Bft) 100,00 %
07.11.2018 17:26 13,3 C 11,1 C 10,6 C 81 % 1007,1 hPa 0,0 l/m 0 min 0 min 0 W/m 9,7 km/h (2 Bft) 100,00 %
07.11.2018 17:28 13,3 C 11,1 C 10,6 C 81 % 1007,0 hPa 0,0 l/m 0 min 0 min 0 W/m 6,4 km/h (2 Bft) 100,00 %
07.11.2018 17:30 13,3 C 11,1 C 10,6 C 81 % 1007,1 hPa 0,0 l/m 0 min 0 min 0 W/m 6,4 km/h (2 Bft) 100,00 %
07.11.2018 17:32 13,3 C 11,1 C 10,6 C 81 % 1007,1 hPa 0,0 l/m 0 min 0 min 0 W/m 12,9 km/h (3 Bft) 100,00 %
07.11.2018 17:34 13,3 C 11,1 C 10,6 C 81 % 1007,1 hPa 0,0 l/m 0 min 0 min 0 W/m 6,4 km/h (2 Bft) 100,00 %
07.11.2018 17:38 13,2 C 11,1 C 10,6 C 81 % 1007,2 hPa 0,0 l/m 0 min 0 min 0 W/m 12,9 km/h (3 Bft) 100,00 %
07.11.2018 17:40 13,2 C 11,1 C 11,1 C 81 % 1007,2 hPa 0,0 l/m 0 min 0 min 0 W/m 6,4 km/h (2 Bft) 100,00 %
07.11.2018 17:42 13,2 C 11,1 C 11,1 C 81 % 1007,3 hPa 0,0 l/m 0 min 0 min 0 W/m 9,7 km/h (2 Bft) 100,00 %
07.11.2018 17:44 13,2 C 11,1 C 11,1 C 81 % 1007,3 hPa 0,0 l/m 0 min 0 min 0 W/m 6,4 km/h (2 Bft) 95,83 %
07.11.2018 17:46 13,2 C 11,1 C 11,1 C 81 % 1007,3 hPa 0,0 l/m 0 min 0 min 0 W/m 6,4 km/h (2 Bft) 95,74 %
07.11.2018 17:48 13,2 C 11,1 C 11,1 C 81 % 1007,3 hPa 0,0 l/m 0 min 0 min 0 W/m 9,7 km/h (2 Bft) 97,83 %
07.11.2018 17:50 13,2 C 11,1 C 11,1 C 81 % 1007,3 hPa 0,0 l/m 0 min 0 min 0 W/m 9,7 km/h (2 Bft) 100,00 %
07.11.2018 17:52 13,2 C 11,1 C 11,1 C 81 % 1007,3 hPa 0,0 l/m 0 min 0 min 0 W/m 9,7 km/h (2 Bft) 100,00 %
07.11.2018 17:54 13,2 C 11,1 C 11,1 C 81 % 1007,4 hPa 0,0 l/m 0 min 0 min 0 W/m 9,7 km/h (2 Bft) 95,74 %
07.11.2018 17:56 13,2 C 11,7 C 11,1 C 81 % 1007,4 hPa 0,0 l/m 0 min 0 min 0 W/m 12,9 km/h (3 Bft) 100,00 %
07.11.2018 17:58 13,1 C 11,7 C 11,1 C 81 % 1007,4 hPa 0,0 l/m 0 min 0 min 0 W/m 6,4 km/h (2 Bft) 100,00 %
07.11.2018 18:00 13,1 C 11,7 C 11,1 C 81 % 1007,5 hPa 0,0 l/m 0 min 0 min 0 W/m 12,9 km/h (3 Bft) 97,83 %
07.11.2018 18:02 13,1 C 11,7 C 11,7 C 81 % 1007,5 hPa 0,0 l/m 0 min 0 min 0 W/m 12,9 km/h (3 Bft) 95,74 %
07.11.2018 18:04 13,1 C 11,7 C 11,7 C 81 % 1007,5 hPa 0,0 l/m 0 min 0 min 0 W/m 9,7 km/h (2 Bft) 97,67 %
07.11.2018 18:07 13,1 C 11,7 C 11,7 C 80 % 1007,6 hPa 0,0 l/m 0 min 0 min 0 W/m 16,1 km/h (3 Bft) 97,67 %
07.11.2018 18:08 13,2 C 11,7 C 11,7 C 80 % 1007,6 hPa 0,0 l/m 0 min 0 min 0 W/m 16,1 km/h (3 Bft) 96,88 %
07.11.2018 18:10 13,2 C 11,7 C 11,7 C 80 % 1007,6 hPa 0,0 l/m 0 min 0 min 0 W/m 12,9 km/h (3 Bft) 97,87 %
07.11.2018 18:12 13,2 C 11,7 C 12,2 C 80 % 1007,6 hPa 0,0 l/m 0 min 0 min 0 W/m 9,7 km/h (2 Bft) 95,74 %
07.11.2018 18:14 13,2 C 11,7 C 12,2 C 80 % 1007,6 hPa 0,0 l/m 0 min 0 min 0 W/m 9,7 km/h (2 Bft) 97,87 %
07.11.2018 18:16 13,2 C 11,7 C 11,7 C 80 % 1007,6 hPa 0,0 l/m 0 min 0 min 0 W/m 25,7 km/h (4 Bft) 97,87 %
07.11.2018 18:18 13,2 C 11,7 C 12,2 C 80 % 1007,6 hPa 0,0 l/m 0 min 0 min 0 W/m 19,3 km/h (3 Bft) 91,49 %
07.11.2018 18:20 13,2 C 11,7 C 12,2 C 79 % 1007,6 hPa 0,0 l/m 0 min 0 min 0 W/m 19,3 km/h (3 Bft) 93,48 %
07.11.2018 18:22 13,3 C 11,7 C 12,2 C 79 % 1007,6 hPa 0,0 l/m 0 min 0 min 0 W/m 9,7 km/h (2 Bft) 93,62 %
07.11.2018 18:24 13,3 C 11,7 C 12,2 C 79 % 1007,6 hPa 0,0 l/m 0 min 0 min 0 W/m 19,3 km/h (3 Bft) 95,74 %
07.11.2018 18:26 13,3 C 11,7 C 12,2 C 79 % 1007,6 hPa 0,0 l/m 0 min 0 min 0 W/m 16,1 km/h (3 Bft) 93,75 %
07.11.2018 18:28 13,4 C 11,7 C 12,2 C 79 % 1007,8 hPa 0,0 l/m 0 min 0 min 0 W/m 22,5 km/h (4 Bft) 95,74 %
07.11.2018 18:30 13,4 C 12,2 C 12,2 C 79 % 1007,8 hPa 0,0 l/m 0 min 0 min 0 W/m 22,5 km/h (4 Bft) 95,74 %
07.11.2018 18:32 13,4 C 12,2 C 12,2 C 79 % 1007,8 hPa 0,0 l/m 0 min 0 min 0 W/m 19,3 km/h (3 Bft) 95,74 %
07.11.2018 18:34 13,4 C 12,2 C 12,2 C 79 % 1007,8 hPa 0,0 l/m 0 min 0 min 0 W/m 19,3 km/h (3 Bft) 93,48 %
07.11.2018 18:38 13,6 C 12,2 C 12,2 C 79 % 1007,9 hPa 0,0 l/m 0 min 0 min 0 W/m 22,5 km/h (4 Bft) 95,74 %
07.11.2018 18:40 13,6 C 12,2 C 12,2 C 79 % 1007,9 hPa 0,0 l/m 0 min 0 min 0 W/m 12,9 km/h (3 Bft) 95,74 %
07.11.2018 18:42 13,6 C 12,2 C 12,2 C 79 % 1008,0 hPa 0,0 l/m 0 min 0 min 0 W/m 9,7 km/h (2 Bft) 95,74 %
07.11.2018 18:44 13,7 C 12,2 C 12,2 C 79 % 1008,0 hPa 0,0 l/m 0 min 0 min 0 W/m 12,9 km/h (3 Bft) 97,87 %
07.11.2018 18:46 13,7 C 11,7 C 12,2 C 79 % 1008,0 hPa 0,0 l/m 0 min 0 min 0 W/m 9,7 km/h (2 Bft) 95,65 %
07.11.2018 18:48 13,7 C 11,7 C 12,2 C 79 % 1008,1 hPa 0,0 l/m 0 min 0 min 0 W/m 9,7 km/h (2 Bft) 97,87 %
07.11.2018 18:50 13,7 C 11,7 C 12,2 C 79 % 1008,1 hPa 0,0 l/m 0 min 0 min 0 W/m 9,7 km/h (2 Bft) 97,87 %
07.11.2018 18:52 13,7 C 11,7 C 11,7 C 79 % 1008,1 hPa 0,0 l/m 0 min 0 min 0 W/m 9,7 km/h (2 Bft) 93,62 %
07.11.2018 18:54 13,7 C 11,7 C 11,7 C 79 % 1008,2 hPa 0,0 l/m 0 min 0 min 0 W/m 12,9 km/h (3 Bft) 97,87 %
07.11.2018 18:56 13,7 C 11,7 C 11,7 C 79 % 1008,2 hPa 0,0 l/m 0 min 0 min 0 W/m 12,9 km/h (3 Bft) 97,87 %
07.11.2018 18:58 13,6 C 11,7 C 11,7 C 79 % 1008,2 hPa 0,0 l/m 0 min 0 min 0 W/m 9,7 km/h (2 Bft) 97,83 %
07.11.2018 19:00 13,6 C 11,7 C 11,7 C 79 % 1008,3 hPa 0,0 l/m 0 min 0 min 0 W/m 16,1 km/h (3 Bft) 97,87 %
07.11.2018 19:02 13,6 C 11,7 C 11,7 C 79 % 1008,3 hPa 0,0 l/m 0 min 0 min 0 W/m 12,9 km/h (3 Bft) 97,87 %
07.11.2018 19:04 13,6 C 11,7 C 11,7 C 79 % 1008,3 hPa 0,0 l/m 0 min 0 min 0 W/m 9,7 km/h (2 Bft) 97,87 %
07.11.2018 19:08 13,6 C 11,7 C 11,7 C 79 % 1008,3 hPa 0,0 l/m 0 min 0 min 0 W/m 16,1 km/h (3 Bft) 97,87 %
07.11.2018 19:10 13,5 C 11,7 C 11,7 C 79 % 1008,3 hPa 0,0 l/m 0 min 0 min 0 W/m 16,1 km/h (3 Bft) 97,83 %
07.11.2018 19:12 13,5 C 11,7 C 11,7 C 79 % 1008,4 hPa 0,0 l/m 0 min 0 min 0 W/m 12,9 km/h (3 Bft) 100,00 %
07.11.2018 19:14 13,5 C 11,7 C 11,7 C 79 % 1008,4 hPa 0,0 l/m 0 min 0 min 0 W/m 12,9 km/h (3 Bft) 97,87 %
07.11.2018 19:16 13,5 C 11,7 C 11,7 C 79 % 1008,4 hPa 0,0 l/m 0 min 0 min 0 W/m 12,9 km/h (3 Bft) 97,87 %
07.11.2018 19:18 13,4 C 11,7 C 11,7 C 79 % 1008,5 hPa 0,0 l/m 0 min 0 min 0 W/m 16,1 km/h (3 Bft) 100,00 %
07.11.2018 19:20 13,4 C 11,7 C 11,7 C 79 % 1008,5 hPa 0,0 l/m 0 min 0 min 0 W/m 16,1 km/h (3 Bft) 100,00 %
07.11.2018 19:22 13,4 C 11,7 C 11,7 C 79 % 1008,4 hPa 0,0 l/m 0 min 0 min 0 W/m 16,1 km/h (3 Bft) 100,00 %
07.11.2018 19:24 13,4 C 11,7 C 11,7 C 79 % 1008,5 hPa 0,0 l/m 0 min 0 min 0 W/m 19,3 km/h (3 Bft) 93,62 %
07.11.2018 19:26 13,4 C 11,7 C 11,7 C 80 % 1008,6 hPa 0,0 l/m 0 min 0 min 0 W/m 12,9 km/h (3 Bft) 97,87 %
07.11.2018 19:28 13,4 C 12,2 C 11,7 C 80 % 1008,6 hPa 0,0 l/m 0 min 0 min 0 W/m 22,5 km/h (4 Bft) 100,00 %
07.11.2018 19:30 13,3 C 11,7 C 11,7 C 80 % 1008,6 hPa 0,0 l/m 0 min 0 min 0 W/m 16,1 km/h (3 Bft) 100,00 %
07.11.2018 19:32 13,3 C 11,7 C 11,7 C 80 % 1008,6 hPa 0,0 l/m 0 min 0 min 0 W/m 12,9 km/h (3 Bft) 97,83 %
07.11.2018 19:34 13,3 C 12,2 C 11,7 C 80 % 1008,6 hPa 0,0 l/m 0 min 0 min 0 W/m 16,1 km/h (3 Bft) 97,87 %
07.11.2018 19:38 13,3 C 12,2 C 11,7 C 81 % 1008,7 hPa 0,0 l/m 0 min 0 min 0 W/m 12,9 km/h (3 Bft) 96,81 %
07.11.2018 19:40 13,3 C 12,2 C 11,7 C 81 % 1008,8 hPa 0,0 l/m 0 min 0 min 0 W/m 12,9 km/h (3 Bft) 97,87 %
07.11.2018 19:42 13,3 C 12,2 C 11,7 C 81 % 1008,8 hPa 0,0 l/m 0 min 0 min 0 W/m 16,1 km/h (3 Bft) 95,74 %
07.11.2018 19:44 13,3 C 12,2 C 11,7 C 81 % 1008,8 hPa 0,0 l/m 0 min 0 min 0 W/m 9,7 km/h (2 Bft) 97,87 %
07.11.2018 19:46 13,3 C 12,2 C 11,7 C 81 % 1008,8 hPa 0,0 l/m 0 min 0 min 0 W/m 9,7 km/h (2 Bft) 97,83 %
07.11.2018 19:48 13,2 C 12,2 C 11,7 C 81 % 1008,9 hPa 0,0 l/m 0 min 0 min 0 W/m 9,7 km/h (2 Bft) 97,87 %
07.11.2018 19:50 13,2 C 12,2 C 11,7 C 81 % 1008,8 hPa 0,0 l/m 0 min 0 min 0 W/m 22,5 km/h (4 Bft) 95,74 %
07.11.2018 19:52 13,2 C 12,2 C 11,7 C 81 % 1008,8 hPa 0,0 l/m 0 min 0 min 0 W/m 12,9 km/h (3 Bft) 97,87 %
07.11.2018 19:54 13,2 C 12,2 C 11,7 C 82 % 1008,7 hPa 0,0 l/m 0 min 0 min 0 W/m 12,9 km/h (3 Bft) 95,74 %
07.11.2018 19:56 13,2 C 12,2 C 11,7 C 82 % 1008,7 hPa 0,0 l/m 0 min 0 min 0 W/m 12,9 km/h (3 Bft) 97,83 %
07.11.2018 19:58 13,2 C 12,2 C 11,7 C 82 % 1008,8 hPa 0,0 l/m 0 min 0 min 0 W/m 12,9 km/h (3 Bft) 97,87 %
07.11.2018 20:00 13,2 C 12,2 C 11,7 C 82 % 1008,8 hPa 0,0 l/m 0 min 0 min 0 W/m 16,1 km/h (3 Bft) 97,87 %
07.11.2018 20:02 13,1 C 12,2 C 11,7 C 82 % 1008,9 hPa 0,0 l/m 0 min 0 min 0 W/m 9,7 km/h (2 Bft) 95,74 %
07.11.2018 20:04 13,1 C 12,2 C 11,7 C 82 % 1008,9 hPa 0,0 l/m 0 min 0 min 0 W/m 9,7 km/h (2 Bft) 93,62 %
07.11.2018 20:08 13,1 C 12,2 C 11,7 C 82 % 1008,9 hPa 0,0 l/m 0 min 0 min 0 W/m 19,3 km/h (3 Bft) 93,55 %
07.11.2018 20:10 13,1 C 12,2 C 11,7 C 82 % 1008,9 hPa 0,0 l/m 0 min 0 min 0 W/m 9,7 km/h (2 Bft) 97,87 %
07.11.2018 20:12 13,1 C 12,2 C 11,7 C 82 % 1008,9 hPa 0,0 l/m 0 min 0 min 0 W/m 12,9 km/h (3 Bft) 97,87 %
07.11.2018 20:14 13,0 C 12,2 C 11,7 C 83 % 1008,9 hPa 0,0 l/m 0 min 0 min 0 W/m 12,9 km/h (3 Bft) 97,87 %
07.11.2018 20:16 13,0 C 12,2 C 11,7 C 83 % 1008,9 hPa 0,0 l/m 0 min 0 min 0 W/m 12,9 km/h (3 Bft) 97,87 %
07.11.2018 20:18 13,0 C 12,2 C 11,7 C 83 % 1009,0 hPa 0,0 l/m 0 min 0 min 0 W/m 9,7 km/h (2 Bft) 95,74 %
07.11.2018 20:20 12,9 C 12,2 C 11,7 C 83 % 1009,1 hPa 0,0 l/m 0 min 0 min 0 W/m 12,9 km/h (3 Bft) 93,48 %
07.11.2018 20:22 12,9 C 12,2 C 11,7 C 83 % 1009,0 hPa 0,0 l/m 0 min 0 min 0 W/m 12,9 km/h (3 Bft) 95,74 %
07.11.2018 20:24 12,9 C 12,2 C 11,7 C 83 % 1009,1 hPa 0,0 l/m 0 min 0 min 0 W/m 12,9 km/h (3 Bft) 95,74 %
07.11.2018 20:26 12,9 C 12,2 C 11,7 C 83 % 1009,0 hPa 0,0 l/m 0 min 0 min 0 W/m 22,5 km/h (4 Bft) 97,87 %
07.11.2018 20:28 12,9 C 12,2 C 11,1 C 83 % 1009,1 hPa 0,0 l/m 0 min 0 min 0 W/m 9,7 km/h (2 Bft) 97,87 %
07.11.2018 20:30 12,9 C 12,2 C 11,1 C 83 % 1009,2 hPa 0,0 l/m 0 min 0 min 0 W/m 9,7 km/h (2 Bft) 95,74 %
07.11.2018 20:32 12,8 C 12,2 C 11,1 C 83 % 1009,2 hPa 0,0 l/m 0 min 0 min 0 W/m 16,1 km/h (3 Bft) 93,48 %
07.11.2018 20:34 12,8 C 11,7 C 11,1 C 83 % 1009,2 hPa 0,0 l/m 0 min 0 min 0 W/m 9,7 km/h (2 Bft) 97,87 %
07.11.2018 20:38 12,8 C 11,7 C 11,1 C 83 % 1009,3 hPa 0,0 l/m 0 min 0 min 0 W/m 19,3 km/h (3 Bft) 95,74 %
07.11.2018 20:40 12,8 C 11,7 C 11,1 C 83 % 1009,3 hPa 0,0 l/m 0 min 0 min 0 W/m 16,1 km/h (3 Bft) 97,87 %
07.11.2018 20:42 12,7 C 11,7 C 11,1 C 84 % 1009,3 hPa 0,0 l/m 0 min 0 min 0 W/m 9,7 km/h (2 Bft) 97,87 %
07.11.2018 20:44 12,7 C 11,7 C 11,1 C 84 % 1009,3 hPa 0,0 l/m 0 min 0 min 0 W/m 9,7 km/h (2 Bft) 95,65 %
07.11.2018 20:46 12,7 C 11,7 C 11,1 C 84 % 1009,3 hPa 0,0 l/m 0 min 0 min 0 W/m 9,7 km/h (2 Bft) 95,74 %
07.11.2018 20:48 12,7 C 11,7 C 11,1 C 84 % 1009,4 hPa 0,0 l/m 0 min 0 min 0 W/m 12,9 km/h (3 Bft) 97,87 %
07.11.2018 20:50 12,7 C 11,7 C 11,1 C 84 % 1009,5 hPa 0,0 l/m 0 min 0 min 0 W/m 12,9 km/h (3 Bft) 97,87 %
07.11.2018 20:52 12,7 C 11,7 C 11,1 C 84 % 1009,5 hPa 0,0 l/m 0 min 0 min 0 W/m 16,1 km/h (3 Bft) 97,87 %
07.11.2018 20:54 12,6 C 11,7 C 11,1 C 84 % 1009,4 hPa 0,0 l/m 0 min 0 min 0 W/m 12,9 km/h (3 Bft) 93,48 %
07.11.2018 20:56 12,6 C 11,7 C 11,1 C 84 % 1009,4 hPa 0,0 l/m 0 min 0 min 0 W/m 12,9 km/h (3 Bft) 97,87 %
07.11.2018 20:58 12,6 C 11,7 C 11,1 C 84 % 1009,5 hPa 0,0 l/m 0 min 0 min 0 W/m 12,9 km/h (3 Bft) 97,87 %
07.11.2018 21:00 12,6 C 11,7 C 11,1 C 85 % 1009,5 hPa 0,0 l/m 0 min 0 min 0 W/m 16,1 km/h (3 Bft) 97,87 %
07.11.2018 21:02 12,5 C 11,7 C 11,1 C 84 % 1009,6 hPa 0,0 l/m 0 min 0 min 0 W/m 9,7 km/h (2 Bft) 97,87 %
07.11.2018 21:04 12,5 C 11,7 C 11,1 C 85 % 1009,6 hPa 0,0 l/m 0 min 0 min 0 W/m 12,9 km/h (3 Bft) 97,87 %
07.11.2018 21:08 12,4 C 11,7 C 11,1 C 85 % 1009,6 hPa 0,0 l/m 0 min 0 min 0 W/m 22,5 km/h (4 Bft) 96,77 %
07.11.2018 21:10 12,4 C 11,7 C 11,1 C 85 % 1009,7 hPa 0,0 l/m 0 min 0 min 0 W/m 16,1 km/h (3 Bft) 93,62 %
07.11.2018 21:12 12,4 C 11,7 C 11,1 C 85 % 1009,7 hPa 0,0 l/m 0 min 0 min 0 W/m 9,7 km/h (2 Bft) 95,74 %
07.11.2018 21:14 12,4 C 11,7 C 11,1 C 85 % 1009,7 hPa 0,0 l/m 0 min 0 min 0 W/m 12,9 km/h (3 Bft) 97,87 %
07.11.2018 21:16 12,4 C 11,7 C 10,6 C 85 % 1009,7 hPa 0,0 l/m 0 min 0 min 0 W/m 9,7 km/h (2 Bft) 97,87 %
07.11.2018 21:18 12,4 C 11,7 C 11,1 C 85 % 1009,7 hPa 0,0 l/m 0 min 0 min 0 W/m 9,7 km/h (2 Bft) 97,83 %
07.11.2018 21:20 12,4 C 11,7 C 11,1 C 85 % 1009,7 hPa 0,0 l/m 0 min 0 min 0 W/m 12,9 km/h (3 Bft) 97,87 %
07.11.2018 21:22 12,4 C 11,7 C 11,1 C 85 % 1009,8 hPa 0,0 l/m 0 min 0 min 0 W/m 16,1 km/h (3 Bft) 97,87 %
07.11.2018 21:24 12,3 C 11,7 C 11,1 C 85 % 1009,7 hPa 0,0 l/m 0 min 0 min 0 W/m 12,9 km/h (3 Bft) 97,87 %
07.11.2018 21:26 12,3 C 11,7 C 11,1 C 85 % 1009,8 hPa 0,0 l/m 0 min 0 min 0 W/m 16,1 km/h (3 Bft) 97,87 %
07.11.2018 21:28 12,3 C 11,7 C 11,1 C 86 % 1009,8 hPa 0,0 l/m 0 min 0 min 0 W/m 12,9 km/h (3 Bft) 95,74 %
07.11.2018 21:30 12,3 C 11,7 C 11,1 C 86 % 1009,9 hPa 0,0 l/m 0 min 0 min 0 W/m 19,3 km/h (3 Bft) 97,83 %
07.11.2018 21:32 12,3 C 11,7 C 11,1 C 86 % 1009,9 hPa 0,0 l/m 0 min 0 min 0 W/m 6,4 km/h (2 Bft) 97,87 %
07.11.2018 21:34 12,3 C 11,7 C 11,1 C 86 % 1009,9 hPa 0,0 l/m 0 min 0 min 0 W/m 9,7 km/h (2 Bft) 95,74 %
07.11.2018 21:38 12,3 C 11,7 C 11,1 C 86 % 1009,9 hPa 0,0 l/m 0 min 0 min 0 W/m 16,1 km/h (3 Bft) 97,87 %
07.11.2018 21:40 12,3 C 11,7 C 11,1 C 86 % 1010,0 hPa 0,0 l/m 0 min 0 min 0 W/m 12,9 km/h (3 Bft) 97,87 %
07.11.2018 21:42 12,3 C 11,7 C 11,1 C 86 % 1010,0 hPa 0,0 l/m 0 min 0 min 0 W/m 19,3 km/h (3 Bft) 97,83 %
07.11.2018 21:44 12,3 C 11,7 C 11,1 C 86 % 1010,0 hPa 0,0 l/m 0 min 0 min 0 W/m 9,7 km/h (2 Bft) 97,87 %
07.11.2018 21:46 12,3 C 11,7 C 11,1 C 86 % 1010,0 hPa 0,0 l/m 0 min 0 min 0 W/m 9,7 km/h (2 Bft) 95,74 %
07.11.2018 21:48 12,3 C 11,7 C 11,1 C 86 % 1010,0 hPa 0,0 l/m 0 min 0 min 0 W/m 12,9 km/h (3 Bft) 97,87 %
07.11.2018 21:50 12,3 C 11,7 C 11,1 C 86 % 1010,0 hPa 0,0 l/m 0 min 0 min 0 W/m 12,9 km/h (3 Bft) 97,87 %
07.11.2018 21:52 12,3 C 11,7 C 11,1 C 86 % 1010,0 hPa 0,0 l/m 0 min 0 min 0 W/m 9,7 km/h (2 Bft) 97,87 %
07.11.2018 21:54 12,3 C 11,7 C 11,1 C 86 % 1010,0 hPa 0,0 l/m 0 min 0 min 0 W/m 16,1 km/h (3 Bft) 97,83 %
07.11.2018 21:56 12,3 C 11,7 C 11,1 C 86 % 1010,1 hPa 0,0 l/m 0 min 0 min 0 W/m 12,9 km/h (3 Bft) 93,62 %
07.11.2018 21:58 12,3 C 11,7 C 11,1 C 86 % 1010,1 hPa 0,0 l/m 0 min 0 min 0 W/m 12,9 km/h (3 Bft) 97,87 %
07.11.2018 22:00 12,3 C 11,7 C 11,1 C 86 % 1010,1 hPa 0,0 l/m 0 min 0 min 0 W/m 16,1 km/h (3 Bft) 100,00 %
07.11.2018 22:02 12,3 C 11,7 C 11,1 C 86 % 1010,1 hPa 0,0 l/m 0 min 0 min 0 W/m 12,9 km/h (3 Bft) 100,00 %
07.11.2018 22:04 12,4 C 11,7 C 11,1 C 85 % 1010,1 hPa 0,0 l/m 0 min 0 min 0 W/m 12,9 km/h (3 Bft) 97,87 %
07.11.2018 22:08 12,3 C 11,7 C 11,1 C 85 % 1010,2 hPa 0,0 l/m 0 min 0 min 0 W/m 12,9 km/h (3 Bft) 98,92 %
07.11.2018 22:10 12,3 C 11,7 C 11,1 C 85 % 1010,3 hPa 0,0 l/m 0 min 0 min 0 W/m 9,7 km/h (2 Bft) 100,00 %
07.11.2018 22:12 12,4 C 11,7 C 11,1 C 85 % 1010,3 hPa 0,0 l/m 0 min 0 min 0 W/m 9,7 km/h (2 Bft) 100,00 %
07.11.2018 22:14 12,4 C 11,7 C 11,1 C 85 % 1010,5 hPa 0,0 l/m 0 min 0 min 0 W/m 9,7 km/h (2 Bft) 95,74 %
07.11.2018 22:16 12,4 C 11,7 C 11,1 C 85 % 1010,4 hPa 0,0 l/m 0 min 0 min 0 W/m 6,4 km/h (2 Bft) 100,00 %
07.11.2018 22:18 12,4 C 11,7 C 11,1 C 85 % 1010,4 hPa 0,0 l/m 0 min 0 min 0 W/m 16,1 km/h (3 Bft) 100,00 %
07.11.2018 22:20 12,3 C 11,7 C 11,1 C 85 % 1010,4 hPa 0,0 l/m 0 min 0 min 0 W/m 12,9 km/h (3 Bft) 100,00 %
07.11.2018 22:22 12,3 C 11,7 C 11,1 C 85 % 1010,4 hPa 0,0 l/m 0 min 0 min 0 W/m 9,7 km/h (2 Bft) 100,00 %
07.11.2018 22:24 12,3 C 11,7 C 11,1 C 85 % 1010,4 hPa 0,0 l/m 0 min 0 min 0 W/m 6,4 km/h (2 Bft) 100,00 %
07.11.2018 22:26 12,3 C 11,7 C 11,1 C 85 % 1010,5 hPa 0,0 l/m 0 min 0 min 0 W/m 16,1 km/h (3 Bft) 100,00 %
07.11.2018 22:28 12,3 C 11,7 C 11,1 C 85 % 1010,5 hPa 0,0 l/m 0 min 0 min 0 W/m 12,9 km/h (3 Bft) 100,00 %
07.11.2018 22:30 12,3 C 11,7 C 11,1 C 85 % 1010,5 hPa 0,0 l/m 0 min 0 min 0 W/m 12,9 km/h (3 Bft) 100,00 %
07.11.2018 22:32 12,3 C 11,7 C 11,1 C 85 % 1010,5 hPa 0,0 l/m 0 min 0 min 0 W/m 6,4 km/h (2 Bft) 100,00 %
07.11.2018 22:34 12,3 C 11,7 C 11,1 C 85 % 1010,5 hPa 0,0 l/m 0 min 0 min 0 W/m 12,9 km/h (3 Bft) 100,00 %
07.11.2018 22:38 12,3 C 11,7 C 11,1 C 85 % 1010,6 hPa 0,0 l/m 0 min 0 min 0 W/m 16,1 km/h (3 Bft) 100,00 %
07.11.2018 22:40 12,3 C 11,7 C 10,6 C 85 % 1010,6 hPa 0,0 l/m 0 min 0 min 0 W/m 9,7 km/h (2 Bft) 100,00 %
07.11.2018 22:42 12,3 C 11,7 C 10,6 C 86 % 1010,6 hPa 0,0 l/m 0 min 0 min 0 W/m 6,4 km/h (2 Bft) 100,00 %
07.11.2018 22:44 12,3 C 11,1 C 10,6 C 85 % 1010,7 hPa 0,0 l/m 0 min 0 min 0 W/m 12,9 km/h (3 Bft) 100,00 %
07.11.2018 22:46 12,3 C 11,1 C 10,6 C 85 % 1010,6 hPa 0,0 l/m 0 min 0 min 0 W/m 12,9 km/h (3 Bft) 100,00 %
07.11.2018 22:48 12,2 C 11,1 C 10,6 C 86 % 1010,6 hPa 0,0 l/m 0 min 0 min 0 W/m 9,7 km/h (2 Bft) 97,87 %
07.11.2018 22:50 12,2 C 11,1 C 10,6 C 86 % 1010,6 hPa 0,0 l/m 0 min 0 min 0 W/m 6,4 km/h (2 Bft) 100,00 %
07.11.2018 22:52 12,2 C 11,1 C 10,6 C 86 % 1010,6 hPa 0,0 l/m 0 min 0 min 0 W/m 9,7 km/h (2 Bft) 100,00 %
07.11.2018 22:54 12,2 C 11,1 C 10,6 C 86 % 1010,6 hPa 0,0 l/m 0 min 0 min 0 W/m 6,4 km/h (2 Bft) 97,87 %
07.11.2018 22:56 12,2 C 11,1 C 10,6 C 86 % 1010,6 hPa 0,0 l/m 0 min 0 min 0 W/m 6,4 km/h (2 Bft) 97,87 %
07.11.2018 22:58 12,1 C 11,1 C 10,6 C 86 % 1010,7 hPa 0,0 l/m 0 min 0 min 0 W/m 6,4 km/h (2 Bft) 100,00 %
07.11.2018 23:00 12,1 C 11,1 C 10,6 C 86 % 1010,7 hPa 0,0 l/m 0 min 0 min 0 W/m 6,4 km/h (2 Bft) 100,00 %
07.11.2018 23:02 12,1 C 11,1 C 10,6 C 86 % 1010,8 hPa 0,0 l/m 0 min 0 min 0 W/m 6,4 km/h (2 Bft) 100,00 %
07.11.2018 23:04 12,1 C 11,1 C 10,6 C 86 % 1010,8 hPa 0,0 l/m 0 min 0 min 0 W/m 12,9 km/h (3 Bft) 100,00 %
07.11.2018 23:08 12,0 C 11,1 C 10,6 C 86 % 1010,8 hPa 0,0 l/m 0 min 0 min 0 W/m 9,7 km/h (2 Bft) 97,87 %
07.11.2018 23:10 12,0 C 11,1 C 10,0 C 86 % 1011,0 hPa 0,0 l/m 0 min 0 min 0 W/m 9,7 km/h (2 Bft) 97,87 %
07.11.2018 23:12 11,9 C 10,6 C 10,0 C 86 % 1010,9 hPa 0,0 l/m 0 min 0 min 0 W/m 6,4 km/h (2 Bft) 97,87 %
07.11.2018 23:14 11,9 C 10,6 C 10,0 C 86 % 1010,9 hPa 0,0 l/m 0 min 0 min 0 W/m 6,4 km/h (2 Bft) 97,87 %
07.11.2018 23:16 11,9 C 10,6 C 10,0 C 86 % 1010,9 hPa 0,0 l/m 0 min 0 min 0 W/m 6,4 km/h (2 Bft) 97,83 %
07.11.2018 23:18 11,9 C 10,6 C 10,0 C 86 % 1010,8 hPa 0,0 l/m 0 min 0 min 0 W/m 6,4 km/h (2 Bft) 97,87 %
07.11.2018 23:20 11,8 C 10,6 C 10,0 C 86 % 1011,0 hPa 0,0 l/m 0 min 0 min 0 W/m 3,2 km/h (1 Bft) 97,87 %
07.11.2018 23:22 11,8 C 10,6 C 10,0 C 86 % 1011,0 hPa 0,0 l/m 0 min 0 min 0 W/m 6,4 km/h (2 Bft) 93,62 %
07.11.2018 23:24 11,8 C 10,6 C 10,0 C 86 % 1011,0 hPa 0,0 l/m 0 min 0 min 0 W/m 3,2 km/h (1 Bft) 95,74 %
07.11.2018 23:26 11,8 C 10,6 C 10,0 C 86 % 1011,1 hPa 0,0 l/m 0 min 0 min 0 W/m 9,7 km/h (2 Bft) 93,48 %
07.11.2018 23:28 11,7 C 10,6 C 10,0 C 87 % 1011,0 hPa 0,0 l/m 0 min 0 min 0 W/m 3,2 km/h (1 Bft) 95,74 %
07.11.2018 23:30 11,7 C 10,6 C 10,0 C 87 % 1011,0 hPa 0,0 l/m 0 min 0 min 0 W/m 6,4 km/h (2 Bft) 95,74 %
07.11.2018 23:32 11,7 C 10,0 C 10,0 C 87 % 1011,1 hPa 0,0 l/m 0 min 0 min 0 W/m 6,4 km/h (2 Bft) 95,74 %
07.11.2018 23:34 11,7 C 10,0 C 10,0 C 87 % 1011,1 hPa 0,0 l/m 0 min 0 min 0 W/m 3,2 km/h (1 Bft) 95,74 %
07.11.2018 23:38 11,6 C 10,0 C 10,0 C 86 % 1011,1 hPa 0,0 l/m 0 min 0 min 0 W/m 6,4 km/h (2 Bft) 96,77 %
07.11.2018 23:40 11,6 C 10,0 C 9,4 C 87 % 1011,1 hPa 0,0 l/m 0 min 0 min 0 W/m 6,4 km/h (2 Bft) 95,74 %
07.11.2018 23:42 11,6 C 10,0 C 9,4 C 87 % 1011,2 hPa 0,0 l/m 0 min 0 min 0 W/m 6,4 km/h (2 Bft) 95,74 %
07.11.2018 23:44 11,5 C 10,0 C 9,4 C 87 % 1011,3 hPa 0,0 l/m 0 min 0 min 0 W/m 9,7 km/h (2 Bft) 95,74 %
07.11.2018 23:46 11,4 C 10,0 C 9,4 C 87 % 1011,3 hPa 0,0 l/m 0 min 0 min 0 W/m 6,4 km/h (2 Bft) 95,74 %
07.11.2018 23:48 11,4 C 10,0 C 9,4 C 87 % 1011,3 hPa 0,0 l/m 0 min 0 min 0 W/m 6,4 km/h (2 Bft) 95,74 %
07.11.2018 23:50 11,4 C 10,0 C 9,4 C 87 % 1011,3 hPa 0,0 l/m 0 min 0 min 0 W/m 3,2 km/h (1 Bft) 95,65 %
07.11.2018 23:52 11,4 C 10,0 C 9,4 C 87 % 1011,3 hPa 0,0 l/m 0 min 0 min 0 W/m 3,2 km/h (1 Bft) 95,74 %
07.11.2018 23:54 11,3 C 10,0 C 9,4 C 87 % 1011,3 hPa 0,0 l/m 0 min 0 min 0 W/m 0,0 km/h (0 Bft) 95,74 %
07.11.2018 23:56 11,3 C 10,0 C 9,4 C 87 % 1011,3 hPa 0,0 l/m 0 min 0 min 0 W/m 6,4 km/h (2 Bft) 95,74 %
07.11.2018 23:58 11,3 C 10,0 C 9,4 C 87 % 1011,2 hPa 0,0 l/m 0 min 0 min 0 W/m 3,2 km/h (1 Bft) 97,87 %
_ Min-Zeit 07:56 03:32 06:54 14:10 07:14 - - - - 23:54 12:58
Minimum _ 9,2 C 8,3 C 7,8 C 65 % 1004,8 hPa - - - - 0,0 km/h (0 Bft) 85,71 %
_ Max-Zeit 14:02 12:14 12:16 04:26 23:44 16:14 09:08 16:08 12:14 09:08 00:30
Maximum _ 16,4 C 21,7 C 18,9 C 93 % 1011,3 hPa 0,2 l/m 4 min 4 min 452 W/m 38,6 km/h
O-SO (5 Bft)
100,00 %
Durchschnitt _ 12,3 C 12,0 C 10,8 C 83 % 1006,6 hPa #0,6 l/m #4:02 h #50 min. 181 W/m 15,0 km/h (3 Bft) 97,34 %
© 2018 W. Hausmann